Time,TemperatureF,DewpointF,PressureIn,WindDirection,WindDirectionDegrees,WindSpeedMPH,WindSpeedGustMPH,Humidity,HourlyPrecipIn,Conditions,Clouds,dailyrainin,SoftwareType,DateUTC
2013-02-04 00:01:00,51.8,45.5,29.98,ESE,120,0.0,0.0,79,0.00,,,0.00,VWS V14.01,2013-02-04 08:01:00,
2013-02-04 00:04:00,51.8,45.8,29.98,ESE,120,0.0,0.0,80,0.00,,,0.00,VWS V14.01,2013-02-04 08:04:00,
2013-02-04 00:05:00,51.7,45.7,29.98,ESE,120,0.0,0.0,80,0.00,,,0.00,VWS V14.01,2013-02-04 08:05:00,
2013-02-04 00:06:00,51.7,45.4,29.98,ESE,120,0.0,0.0,79,0.00,,,0.00,VWS V14.01,2013-02-04 08:06:00,
2013-02-04 00:07:00,51.6,45.6,29.98,ESE,120,0.0,0.0,80,0.00,,,0.00,VWS V14.01,2013-02-04 08:07:00,
2013-02-04 00:11:00,51.7,45.7,29.99,ESE,120,0.0,0.0,80,0.00,,,0.00,VWS V14.01,2013-02-04 08:11:00,
2013-02-04 00:12:00,51.7,45.4,29.99,ESE,120,0.0,0.0,79,0.00,,,0.00,VWS V14.01,2013-02-04 08:12:00,
2013-02-04 00:15:00,51.5,45.5,29.99,ESE,120,1.0,1.0,80,0.00,,,0.00,VWS V14.01,2013-02-04 08:15:00,
2013-02-04 00:16:00,51.4,45.5,29.99,ESE,120,1.0,1.0,80,0.00,,,0.00,VWS V14.01,2013-02-04 08:16:00,
2013-02-04 00:17:00,51.4,45.5,29.99,ESE,120,1.0,1.0,80,0.00,,,0.00,VWS V14.01,2013-02-04 08:17:00,
2013-02-04 00:21:00,51.2,45.6,29.99,ESE,120,0.0,0.0,81,0.00,,,0.00,VWS V14.01,2013-02-04 08:21:00,
2013-02-04 00:22:00,51.2,45.6,29.99,ESE,120,0.0,0.0,81,0.00,,,0.00,VWS V14.01,2013-02-04 08:22:00,
2013-02-04 00:23:00,51.1,45.5,29.99,ESE,122,1.0,1.0,81,0.00,,,0.00,VWS V14.01,2013-02-04 08:23:00,
2013-02-04 00:27:00,50.8,45.2,29.98,WSW,243,0.0,0.0,81,0.00,,,0.00,VWS V14.01,2013-02-04 08:27:00,
2013-02-04 00:28:00,50.8,45.2,29.98,WSW,243,0.0,0.0,81,0.00,,,0.00,VWS V14.01,2013-02-04 08:28:00,
2013-02-04 00:29:00,50.7,45.4,29.98,WSW,243,0.0,1.0,82,0.00,,,0.00,VWS V14.01,2013-02-04 08:29:00,
2013-02-04 00:33:00,50.6,45.3,29.98,WSW,244,0.0,0.0,82,0.00,,,0.00,VWS V14.01,2013-02-04 08:33:00,
2013-02-04 00:34:00,50.5,45.2,29.98,WSW,243,0.0,0.0,82,0.00,,,0.00,VWS V14.01,2013-02-04 08:34:00,
2013-02-04 00:35:00,50.5,45.2,29.98,WSW,243,0.0,0.0,82,0.00,,,0.00,VWS V14.01,2013-02-04 08:35:00,
2013-02-04 00:36:00,50.4,45.1,29.98,WSW,243,0.0,0.0,82,0.00,,,0.00,VWS V14.01,2013-02-04 08:36:00,
2013-02-04 00:39:00,50.4,45.1,29.98,WSW,242,1.0,1.0,82,0.00,,,0.00,VWS V14.01,2013-02-04 08:39:00,
2013-02-04 00:41:00,50.3,45.0,29.98,SW,230,1.0,1.0,82,0.00,,,0.00,VWS V14.01,2013-02-04 08:41:00,
2013-02-04 00:44:00,50.1,45.2,29.98,SSE,154,0.0,1.0,83,0.00,,,0.00,VWS V14.01,2013-02-04 08:44:00,
2013-02-04 00:45:00,50.1,45.2,29.98,SSE,153,0.0,0.0,83,0.00,,,0.00,VWS V14.01,2013-02-04 08:45:00,
2013-02-04 00:46:00,50.0,45.0,29.98,SSE,154,0.0,1.0,83,0.00,,,0.00,VWS V14.01,2013-02-04 08:46:00,
2013-02-04 00:50:00,49.8,45.2,29.98,SSE,154,0.0,0.0,84,0.00,,,0.00,VWS V14.01,2013-02-04 08:50:00,
2013-02-04 00:52:00,49.8,45.2,29.98,SSE,154,0.0,0.0,84,0.00,,,0.00,VWS V14.01,2013-02-04 08:52:00,
2013-02-04 00:53:00,49.8,45.2,29.98,SSE,153,1.0,1.0,84,0.00,,,0.00,VWS V14.01,2013-02-04 08:53:00,
2013-02-04 00:55:00,49.7,45.1,29.98,SSE,154,0.0,1.0,84,0.00,,,0.00,VWS V14.01,2013-02-04 08:55:00,
2013-02-04 00:58:00,49.7,45.1,29.98,SSE,154,0.0,0.0,84,0.00,,,0.00,VWS V14.01,2013-02-04 08:58:00,
2013-02-04 01:00:00,49.6,45.0,29.98,SSE,153,0.0,0.0,84,0.00,,,0.00,VWS V14.01,2013-02-04 09:00:00,
2013-02-04 01:02:00,49.6,45.3,29.98,SSE,153,0.0,0.0,85,0.00,,,0.00,VWS V14.01,2013-02-04 09:02:00,
2013-02-04 01:04:00,49.7,45.4,29.98,SSE,153,0.0,0.0,85,0.00,,,0.00,VWS V14.01,2013-02-04 09:04:00,
2013-02-04 01:06:00,49.8,45.5,29.98,SSE,154,0.0,0.0,85,0.00,,,0.00,VWS V14.01,2013-02-04 09:06:00,
2013-02-04 01:08:00,49.9,45.6,29.98,SSE,154,0.0,0.0,85,0.00,,,0.00,VWS V14.01,2013-02-04 09:08:00,
2013-02-04 01:09:00,49.9,45.6,29.98,SSE,154,0.0,0.0,85,0.00,,,0.00,VWS V14.01,2013-02-04 09:09:00,
2013-02-04 01:10:00,50.0,45.7,29.98,SSE,153,0.0,0.0,85,0.00,,,0.00,VWS V14.01,2013-02-04 09:10:00,
2013-02-04 01:12:00,50.0,45.7,29.98,SSE,154,0.0,0.0,85,0.00,,,0.00,VWS V14.01,2013-02-04 09:12:00,
2013-02-04 01:14:00,50.2,45.9,29.98,SSE,154,0.0,0.0,85,0.00,,,0.00,VWS V14.01,2013-02-04 09:14:00,
2013-02-04 01:15:00,50.3,46.0,29.98,SSE,153,0.0,0.0,85,0.00,,,0.00,VWS V14.01,2013-02-04 09:15:00,
2013-02-04 01:17:00,50.4,45.8,29.98,SSE,154,0.0,0.0,84,0.00,,,0.00,VWS V14.01,2013-02-04 09:17:00,
2013-02-04 01:19:00,50.5,45.8,29.98,SSE,154,0.0,0.0,84,0.00,,,0.00,VWS V14.01,2013-02-04 09:19:00,
2013-02-04 01:22:00,50.6,45.6,29.98,SSE,154,0.0,0.0,83,0.00,,,0.00,VWS V14.01,2013-02-04 09:22:00,
2013-02-04 01:24:00,50.7,45.7,29.97,SSE,153,1.0,1.0,83,0.00,,,0.00,VWS V14.01,2013-02-04 09:24:00,
2013-02-04 01:29:00,50.6,45.3,29.97,SE,143,1.0,1.0,82,0.00,,,0.00,VWS V14.01,2013-02-04 09:29:00,
2013-02-04 01:30:00,50.5,45.2,29.97,SE,142,1.0,1.0,82,0.00,,,0.00,VWS V14.01,2013-02-04 09:30:00,
2013-02-04 01:31:00,50.4,45.1,29.97,SE,143,1.0,1.0,82,0.00,,,0.00,VWS V14.01,2013-02-04 09:31:00,
2013-02-04 01:34:00,50.2,45.2,29.97,SE,142,0.0,0.0,83,0.00,,,0.00,VWS V14.01,2013-02-04 09:34:00,
2013-02-04 01:35:00,50.1,45.2,29.97,SE,142,0.0,0.0,83,0.00,,,0.00,VWS V14.01,2013-02-04 09:35:00,
2013-02-04 01:38:00,49.9,45.0,29.98,SE,142,0.0,0.0,83,0.00,,,0.00,VWS V14.01,2013-02-04 09:38:00,
2013-02-04 01:41:00,49.7,44.8,29.98,SE,143,0.0,0.0,83,0.00,,,0.00,VWS V14.01,2013-02-04 09:41:00,
2013-02-04 01:43:00,49.6,44.7,29.98,SE,142,0.0,1.0,83,0.00,,,0.00,VWS V14.01,2013-02-04 09:43:00,
2013-02-04 01:47:00,49.7,45.1,29.98,West,273,1.0,1.0,84,0.00,,,0.00,VWS V14.01,2013-02-04 09:47:00,
2013-02-04 01:48:00,49.7,45.1,29.98,West,272,0.0,1.0,84,0.00,,,0.00,VWS V14.01,2013-02-04 09:48:00,
2013-02-04 01:49:00,49.7,45.1,29.98,West,273,0.0,0.0,84,0.00,,,0.00,VWS V14.01,2013-02-04 09:49:00,
2013-02-04 01:53:00,49.5,44.9,29.98,West,272,0.0,1.0,84,0.00,,,0.00,VWS V14.01,2013-02-04 09:53:00,
2013-02-04 01:54:00,49.5,44.9,29.98,West,272,0.0,0.0,84,0.00,,,0.00,VWS V14.01,2013-02-04 09:54:00,
2013-02-04 01:55:00,49.5,44.9,29.98,West,272,0.0,0.0,84,0.00,,,0.00,VWS V14.01,2013-02-04 09:55:00,
2013-02-04 01:59:00,49.4,45.1,29.98,West,273,0.0,1.0,85,0.00,,,0.00,VWS V14.01,2013-02-04 09:59:00,
2013-02-04 02:00:00,49.4,45.1,29.98,West,272,0.0,1.0,85,0.00,,,0.00,VWS V14.01,2013-02-04 10:00:00,
2013-02-04 02:01:00,49.3,45.0,29.98,West,273,0.0,0.0,85,0.00,,,0.00,VWS V14.01,2013-02-04 10:01:00,
2013-02-04 02:04:00,49.2,44.6,29.98,West,272,1.0,1.0,84,0.00,,,0.00,VWS V14.01,2013-02-04 10:04:00,
2013-02-04 02:06:00,49.0,44.7,29.98,West,272,0.0,1.0,85,0.00,,,0.00,VWS V14.01,2013-02-04 10:06:00,
2013-02-04 02:08:00,48.9,44.6,29.98,ESE,113,1.0,1.0,85,0.00,,,0.00,VWS V14.01,2013-02-04 10:08:00,
2013-02-04 02:10:00,48.8,44.5,29.97,ESE,113,0.0,0.0,85,0.00,,,0.00,VWS V14.01,2013-02-04 10:10:00,
2013-02-04 02:12:00,48.8,44.5,29.97,ESE,113,0.0,0.0,85,0.00,,,0.00,VWS V14.01,2013-02-04 10:12:00,
2013-02-04 02:13:00,48.7,44.7,29.97,ESE,113,0.0,0.0,86,0.00,,,0.00,VWS V14.01,2013-02-04 10:13:00,
2013-02-04 02:15:00,48.8,44.8,29.97,ESE,113,0.0,0.0,86,0.00,,,0.00,VWS V14.01,2013-02-04 10:15:00,
2013-02-04 02:17:00,48.7,44.7,29.97,ESE,113,0.0,0.0,86,0.00,,,0.00,VWS V14.01,2013-02-04 10:17:00,
2013-02-04 02:18:00,48.7,44.7,29.97,ESE,113,1.0,1.0,86,0.00,,,0.00,VWS V14.01,2013-02-04 10:18:00,
2013-02-04 02:19:00,48.7,44.7,29.97,ESE,113,1.0,1.0,86,0.00,,,0.00,VWS V14.01,2013-02-04 10:19:00,
2013-02-04 02:23:00,48.8,44.8,29.98,ESE,113,0.0,0.0,86,0.00,,,0.00,VWS V14.01,2013-02-04 10:23:00,
2013-02-04 02:24:00,48.8,44.8,29.98,ESE,113,0.0,0.0,86,0.00,,,0.00,VWS V14.01,2013-02-04 10:24:00,
2013-02-04 02:25:00,48.7,44.7,29.98,ESE,113,0.0,0.0,86,0.00,,,0.00,VWS V14.01,2013-02-04 10:25:00,
2013-02-04 02:27:00,48.7,44.7,29.98,ESE,113,0.0,0.0,86,0.00,,,0.00,VWS V14.01,2013-02-04 10:27:00,
2013-02-04 02:29:00,48.6,44.6,29.98,ESE,113,0.0,1.0,86,0.00,,,0.00,VWS V14.01,2013-02-04 10:29:00,
2013-02-04 02:32:00,48.5,44.5,29.97,ESE,113,0.0,0.0,86,0.00,,,0.00,VWS V14.01,2013-02-04 10:32:00,
2013-02-04 02:34:00,48.4,44.4,29.97,ESE,113,0.0,0.0,86,0.00,,,0.00,VWS V14.01,2013-02-04 10:34:00,
2013-02-04 02:37:00,48.3,44.3,29.97,ESE,113,0.0,0.0,86,0.00,,,0.00,VWS V14.01,2013-02-04 10:37:00,
2013-02-04 02:40:00,48.2,44.2,29.97,ESE,113,0.0,0.0,86,0.00,,,0.00,VWS V14.01,2013-02-04 10:40:00,
2013-02-04 02:41:00,48.1,44.1,29.97,ESE,113,0.0,0.0,86,0.00,,,0.00,VWS V14.01,2013-02-04 10:41:00,
2013-02-04 02:42:00,48.1,44.1,29.97,ESE,113,0.0,1.0,86,0.00,,,0.00,VWS V14.01,2013-02-04 10:42:00,
2013-02-04 02:46:00,47.9,43.9,29.97,ESE,113,0.0,0.0,86,0.00,,,0.00,VWS V14.01,2013-02-04 10:46:00,
2013-02-04 02:48:00,47.8,44.1,29.97,ESE,113,1.0,1.0,87,0.00,,,0.00,VWS V14.01,2013-02-04 10:48:00,
2013-02-04 02:49:00,47.7,44.0,29.97,ESE,113,1.0,1.0,87,0.00,,,0.00,VWS V14.01,2013-02-04 10:49:00,
2013-02-04 02:52:00,47.7,44.0,29.97,ESE,113,0.0,1.0,87,0.00,,,0.00,VWS V14.01,2013-02-04 10:52:00,
2013-02-04 02:53:00,47.7,44.0,29.97,ESE,113,0.0,0.0,87,0.00,,,0.00,VWS V14.01,2013-02-04 10:53:00,
2013-02-04 02:54:00,47.6,43.9,29.97,ESE,113,0.0,0.0,87,0.00,,,0.00,VWS V14.01,2013-02-04 10:54:00,
2013-02-04 02:58:00,47.6,43.9,29.97,ESE,113,0.0,1.0,87,0.00,,,0.00,VWS V14.01,2013-02-04 10:58:00,
2013-02-04 03:00:00,47.6,44.2,29.96,ESE,113,0.0,0.0,88,0.00,,,0.00,VWS V14.01,2013-02-04 11:00:00,
2013-02-04 03:03:00,47.7,44.3,29.96,ESE,113,1.0,1.0,88,0.00,,,0.00,VWS V14.01,2013-02-04 11:03:00,
2013-02-04 03:04:00,47.7,44.3,29.96,ESE,113,0.0,1.0,88,0.00,,,0.00,VWS V14.01,2013-02-04 11:04:00,
2013-02-04 03:05:00,47.8,44.4,29.96,ESE,113,0.0,0.0,88,0.00,,,0.00,VWS V14.01,2013-02-04 11:05:00,
2013-02-04 03:08:00,48.1,45.0,29.97,ESE,113,0.0,0.0,89,0.00,,,0.00,VWS V14.01,2013-02-04 11:08:00,
2013-02-04 03:09:00,48.1,45.0,29.97,ESE,113,0.0,0.0,89,0.00,,,0.00,VWS V14.01,2013-02-04 11:09:00,
2013-02-04 03:10:00,48.1,44.7,29.97,ESE,113,0.0,0.0,88,0.00,,,0.00,VWS V14.01,2013-02-04 11:10:00,
2013-02-04 03:14:00,48.4,45.0,29.97,ESE,113,0.0,0.0,88,0.00,,,0.00,VWS V14.01,2013-02-04 11:14:00,
2013-02-04 03:15:00,48.5,45.1,29.97,ESE,113,0.0,0.0,88,0.00,,,0.00,VWS V14.01,2013-02-04 11:15:00,
2013-02-04 03:17:00,48.5,45.1,29.97,ESE,113,0.0,0.0,88,0.00,,,0.00,VWS V14.01,2013-02-04 11:17:00,
2013-02-04 03:20:00,48.7,45.3,29.97,ESE,113,1.0,1.0,88,0.00,,,0.00,VWS V14.01,2013-02-04 11:20:00,
2013-02-04 03:22:00,48.7,45.0,29.97,ESE,113,1.0,1.0,87,0.00,,,0.00,VWS V14.01,2013-02-04 11:22:00,
2013-02-04 03:23:00,48.7,45.0,29.97,ESE,113,0.0,1.0,87,0.00,,,0.00,VWS V14.01,2013-02-04 11:23:00,
2013-02-04 03:26:00,48.6,44.6,29.97,ESE,113,1.0,1.0,86,0.00,,,0.00,VWS V14.01,2013-02-04 11:26:00,
2013-02-04 03:28:00,48.6,44.6,29.97,ESE,113,0.0,1.0,86,0.00,,,0.00,VWS V14.01,2013-02-04 11:28:00,
2013-02-04 03:30:00,48.5,44.5,29.97,ESE,113,0.0,0.0,86,0.00,,,0.00,VWS V14.01,2013-02-04 11:30:00,
2013-02-04 03:31:00,48.5,44.5,29.97,ESE,113,0.0,0.0,86,0.00,,,0.00,VWS V14.01,2013-02-04 11:31:00,
2013-02-04 03:33:00,48.4,44.4,29.97,ESE,113,0.0,0.0,86,0.00,,,0.00,VWS V14.01,2013-02-04 11:33:00,
2013-02-04 03:36:00,48.3,44.3,29.97,ESE,110,1.0,1.0,86,0.00,,,0.00,VWS V14.01,2013-02-04 11:36:00,
2013-02-04 03:37:00,48.2,44.2,29.97,ESE,117,1.0,1.0,86,0.00,,,0.00,VWS V14.01,2013-02-04 11:37:00,
2013-02-04 03:38:00,48.1,44.1,29.97,SE,133,1.0,1.0,86,0.00,,,0.00,VWS V14.01,2013-02-04 11:38:00,
2013-02-04 03:42:00,47.7,43.7,29.97,SE,132,0.0,0.0,86,0.00,,,0.00,VWS V14.01,2013-02-04 11:42:00,
2013-02-04 03:43:00,47.6,43.6,29.97,SE,132,0.0,0.0,86,0.00,,,0.00,VWS V14.01,2013-02-04 11:43:00,
2013-02-04 03:44:00,47.5,43.5,29.97,SE,132,0.0,0.0,86,0.00,,,0.00,VWS V14.01,2013-02-04 11:44:00,
2013-02-04 03:47:00,47.3,43.3,29.97,SE,133,0.0,0.0,86,0.00,,,0.00,VWS V14.01,2013-02-04 11:47:00,
2013-02-04 03:48:00,47.3,43.6,29.97,SE,133,0.0,0.0,87,0.00,,,0.00,VWS V14.01,2013-02-04 11:48:00,
2013-02-04 03:49:00,47.3,43.6,29.97,SE,132,0.0,0.0,87,0.00,,,0.00,VWS V14.01,2013-02-04 11:49:00,
2013-02-04 03:53:00,47.3,43.6,29.97,SE,132,0.0,0.0,87,0.00,,,0.00,VWS V14.01,2013-02-04 11:53:00,
2013-02-04 03:56:00,47.4,44.0,29.97,SE,132,0.0,0.0,88,0.00,,,0.00,VWS V14.01,2013-02-04 11:56:00,
2013-02-04 03:57:00,47.4,44.0,29.97,SE,133,0.0,0.0,88,0.00,,,0.00,VWS V14.01,2013-02-04 11:57:00,
2013-02-04 03:59:00,47.5,44.1,29.97,SE,132,0.0,0.0,88,0.00,,,0.00,VWS V14.01,2013-02-04 11:59:00,
2013-02-04 04:01:00,47.5,44.1,29.97,SE,132,0.0,0.0,88,0.00,,,0.00,VWS V14.01,2013-02-04 12:01:00,
2013-02-04 04:03:00,47.5,44.1,29.97,SE,132,0.0,0.0,88,0.00,,,0.00,VWS V14.01,2013-02-04 12:03:00,
2013-02-04 04:04:00,47.6,44.5,29.97,SE,132,0.0,1.0,89,0.00,,,0.00,VWS V14.01,2013-02-04 12:04:00,
2013-02-04 04:06:00,48.0,44.9,29.97,SE,132,0.0,0.0,89,0.00,,,0.00,VWS V14.01,2013-02-04 12:06:00,
2013-02-04 04:08:00,48.4,45.3,29.97,SE,132,0.0,0.0,89,0.00,,,0.00,VWS V14.01,2013-02-04 12:08:00,
2013-02-04 04:09:00,48.5,45.1,29.97,SE,133,0.0,0.0,88,0.00,,,0.00,VWS V14.01,2013-02-04 12:09:00,
2013-02-04 04:11:00,48.6,44.9,29.97,East,86,1.0,1.0,87,0.00,,,0.00,VWS V14.01,2013-02-04 12:11:00,
2013-02-04 04:13:00,48.5,44.5,29.97,East,86,1.0,1.0,86,0.00,,,0.00,VWS V14.01,2013-02-04 12:13:00,
2013-02-04 04:14:00,48.4,44.4,29.97,East,86,0.0,1.0,86,0.00,,,0.00,VWS V14.01,2013-02-04 12:14:00,
2013-02-04 04:18:00,47.9,43.6,29.97,East,86,0.0,0.0,85,0.00,,,0.00,VWS V14.01,2013-02-04 12:18:00,
2013-02-04 04:19:00,47.8,43.5,29.97,East,86,0.0,0.0,85,0.00,,,0.00,VWS V14.01,2013-02-04 12:19:00,
2013-02-04 04:20:00,47.7,43.4,29.97,East,86,0.0,0.0,85,0.00,,,0.00,VWS V14.01,2013-02-04 12:20:00,
2013-02-04 04:24:00,47.3,43.3,29.97,East,86,0.0,0.0,86,0.00,,,0.00,VWS V14.01,2013-02-04 12:24:00,
2013-02-04 04:25:00,47.3,43.3,29.97,East,86,0.0,0.0,86,0.00,,,0.00,VWS V14.01,2013-02-04 12:25:00,
2013-02-04 04:27:00,47.3,43.6,29.97,East,86,0.0,0.0,87,0.00,,,0.00,VWS V14.01,2013-02-04 12:27:00,
2013-02-04 04:29:00,47.3,43.6,29.97,East,86,0.0,0.0,87,0.00,,,0.00,VWS V14.01,2013-02-04 12:29:00,
2013-02-04 04:33:00,47.1,43.4,29.97,East,86,0.0,0.0,87,0.00,,,0.00,VWS V14.01,2013-02-04 12:33:00,
2013-02-04 04:34:00,47.1,43.4,29.97,East,86,0.0,0.0,87,0.00,,,0.00,VWS V14.01,2013-02-04 12:34:00,
2013-02-04 04:36:00,47.1,43.4,29.97,East,86,0.0,0.0,87,0.00,,,0.00,VWS V14.01,2013-02-04 12:36:00,
2013-02-04 04:39:00,47.1,43.4,29.97,East,86,0.0,0.0,87,0.00,,,0.00,VWS V14.01,2013-02-04 12:39:00,
2013-02-04 04:40:00,47.1,43.7,29.97,East,86,0.0,0.0,88,0.00,,,0.00,VWS V14.01,2013-02-04 12:40:00,
2013-02-04 04:44:00,47.5,44.4,29.97,East,86,0.0,1.0,89,0.00,,,0.00,VWS V14.01,2013-02-04 12:44:00,
2013-02-04 04:46:00,47.7,44.3,29.97,East,86,0.0,0.0,88,0.00,,,0.00,VWS V14.01,2013-02-04 12:46:00,
2013-02-04 04:47:00,47.8,44.4,29.97,East,86,0.0,0.0,88,0.00,,,0.00,VWS V14.01,2013-02-04 12:47:00,
2013-02-04 04:49:00,47.8,44.4,29.97,East,86,0.0,0.0,88,0.00,,,0.00,VWS V14.01,2013-02-04 12:49:00,
2013-02-04 04:50:00,47.8,44.4,29.97,East,86,0.0,0.0,88,0.00,,,0.00,VWS V14.01,2013-02-04 12:50:00,
2013-02-04 04:52:00,47.7,44.0,29.97,East,86,0.0,0.0,87,0.00,,,0.00,VWS V14.01,2013-02-04 12:52:00,
2013-02-04 04:53:00,47.8,44.4,29.97,East,86,0.0,0.0,88,0.00,,,0.00,VWS V14.01,2013-02-04 12:53:00,
2013-02-04 04:55:00,47.9,44.5,29.97,East,86,0.0,0.0,88,0.00,,,0.00,VWS V14.01,2013-02-04 12:55:00,
2013-02-04 04:56:00,47.9,44.5,29.97,East,86,0.0,0.0,88,0.00,,,0.00,VWS V14.01,2013-02-04 12:56:00,
2013-02-04 04:58:00,47.8,44.1,29.97,East,86,0.0,0.0,87,0.00,,,0.00,VWS V14.01,2013-02-04 12:58:00,
2013-02-04 04:59:00,47.7,44.0,29.97,East,86,0.0,0.0,87,0.00,,,0.00,VWS V14.01,2013-02-04 12:59:00,
2013-02-04 05:00:00,47.7,44.0,29.97,East,86,0.0,0.0,87,0.00,,,0.00,VWS V14.01,2013-02-04 13:00:00,
2013-02-04 05:04:00,47.6,44.2,29.97,East,86,0.0,0.0,88,0.00,,,0.00,VWS V14.01,2013-02-04 13:04:00,
2013-02-04 05:05:00,47.6,44.2,29.97,East,86,0.0,0.0,88,0.00,,,0.00,VWS V14.01,2013-02-04 13:05:00,
2013-02-04 05:06:00,47.7,44.3,29.97,East,86,0.0,0.0,88,0.00,,,0.00,VWS V14.01,2013-02-04 13:06:00,
2013-02-04 05:07:00,47.8,44.4,29.97,East,86,0.0,0.0,88,0.00,,,0.00,VWS V14.01,2013-02-04 13:07:00,
2013-02-04 05:10:00,48.0,44.3,29.97,East,86,0.0,0.0,87,0.00,,,0.00,VWS V14.01,2013-02-04 13:10:00,
2013-02-04 05:12:00,47.9,44.2,29.97,East,86,0.0,0.0,87,0.00,,,0.00,VWS V14.01,2013-02-04 13:12:00,
2013-02-04 05:15:00,47.7,43.7,29.97,East,86,0.0,0.0,86,0.00,,,0.00,VWS V14.01,2013-02-04 13:15:00,
2013-02-04 05:17:00,47.5,43.5,29.97,East,86,0.0,0.0,86,0.00,,,0.00,VWS V14.01,2013-02-04 13:17:00,
2013-02-04 05:18:00,47.5,43.5,29.97,East,86,0.0,0.0,86,0.00,,,0.00,VWS V14.01,2013-02-04 13:18:00,
2013-02-04 05:19:00,47.4,43.4,29.97,East,86,0.0,0.0,86,0.00,,,0.00,VWS V14.01,2013-02-04 13:19:00,
2013-02-04 05:20:00,47.3,43.3,29.97,East,86,0.0,0.0,86,0.00,,,0.00,VWS V14.01,2013-02-04 13:20:00,
2013-02-04 05:23:00,47.1,43.4,29.97,East,86,0.0,0.0,87,0.00,,,0.00,VWS V14.01,2013-02-04 13:23:00,
2013-02-04 05:24:00,47.0,43.3,29.97,East,86,0.0,0.0,87,0.00,,,0.00,VWS V14.01,2013-02-04 13:24:00,
2013-02-04 05:26:00,47.0,43.3,29.97,East,86,0.0,0.0,87,0.00,,,0.00,VWS V14.01,2013-02-04 13:26:00,
2013-02-04 05:28:00,47.0,43.6,29.97,East,86,0.0,0.0,88,0.00,,,0.00,VWS V14.01,2013-02-04 13:28:00,
2013-02-04 05:30:00,47.1,43.7,29.97,East,86,0.0,0.0,88,0.00,,,0.00,VWS V14.01,2013-02-04 13:30:00,
2013-02-04 05:33:00,47.2,43.8,29.97,East,86,0.0,0.0,88,0.00,,,0.00,VWS V14.01,2013-02-04 13:33:00,
2013-02-04 05:34:00,47.1,43.7,29.97,East,86,0.0,0.0,88,0.00,,,0.00,VWS V14.01,2013-02-04 13:34:00,
2013-02-04 05:36:00,47.1,43.7,29.97,East,86,0.0,0.0,88,0.00,,,0.00,VWS V14.01,2013-02-04 13:36:00,
2013-02-04 05:39:00,47.2,44.1,29.97,East,86,0.0,0.0,89,0.00,,,0.00,VWS V14.01,2013-02-04 13:39:00,
2013-02-04 05:40:00,47.4,44.3,29.97,East,86,0.0,0.0,89,0.00,,,0.00,VWS V14.01,2013-02-04 13:40:00,
2013-02-04 05:41:00,47.5,44.4,29.97,East,86,0.0,0.0,89,0.00,,,0.00,VWS V14.01,2013-02-04 13:41:00,
2013-02-04 05:44:00,47.9,44.8,29.98,East,86,0.0,0.0,89,0.00,,,0.00,VWS V14.01,2013-02-04 13:44:00,
2013-02-04 05:46:00,47.9,44.5,29.98,East,86,0.0,0.0,88,0.00,,,0.00,VWS V14.01,2013-02-04 13:46:00,
2013-02-04 05:47:00,47.9,44.5,29.98,East,86,0.0,0.0,88,0.00,,,0.00,VWS V14.01,2013-02-04 13:47:00,
2013-02-04 05:49:00,47.9,44.5,29.97,East,86,0.0,0.0,88,0.00,,,0.00,VWS V14.01,2013-02-04 13:49:00,
2013-02-04 05:52:00,47.9,44.2,29.97,ESE,109,1.0,1.0,87,0.00,,,0.00,VWS V14.01,2013-02-04 13:52:00,
2013-02-04 05:53:00,47.7,44.0,29.97,ESE,116,1.0,1.0,87,0.00,,,0.00,VWS V14.01,2013-02-04 13:53:00,
2013-02-04 05:56:00,47.5,43.8,29.97,ESE,107,1.0,1.0,87,0.00,,,0.00,VWS V14.01,2013-02-04 13:56:00,
2013-02-04 05:58:00,47.4,43.7,29.97,East,98,1.0,2.0,87,0.00,,,0.00,VWS V14.01,2013-02-04 13:58:00,
2013-02-04 06:00:00,47.3,43.6,29.97,East,91,2.0,2.0,87,0.00,,,0.00,VWS V14.01,2013-02-04 14:00:00,
2013-02-04 06:02:00,47.1,43.4,29.96,ESE,114,0.0,1.0,87,0.00,,,0.00,VWS V14.01,2013-02-04 14:02:00,
2013-02-04 06:04:00,47.1,43.4,29.96,ESE,114,0.0,1.0,87,0.00,,,0.00,VWS V14.01,2013-02-04 14:04:00,
2013-02-04 06:05:00,47.1,43.7,29.96,ESE,113,1.0,1.0,88,0.00,,,0.00,VWS V14.01,2013-02-04 14:05:00,
2013-02-04 06:07:00,47.1,43.7,29.96,ENE,77,1.0,2.0,88,0.00,,,0.00,VWS V14.01,2013-02-04 14:07:00,
2013-02-04 06:08:00,47.2,43.8,29.96,East,86,1.0,2.0,88,0.00,,,0.00,VWS V14.01,2013-02-04 14:08:00,
2013-02-04 06:12:00,47.3,43.9,29.97,East,89,1.0,1.0,88,0.00,,,0.00,VWS V14.01,2013-02-04 14:12:00,
2013-02-04 06:13:00,47.3,43.9,29.97,East,89,1.0,2.0,88,0.00,,,0.00,VWS V14.01,2013-02-04 14:13:00,
2013-02-04 06:14:00,47.3,43.6,29.97,East,89,1.0,1.0,87,0.00,,,0.00,VWS V14.01,2013-02-04 14:14:00,
2013-02-04 06:15:00,47.3,43.6,29.97,East,84,1.0,1.0,87,0.00,,,0.00,VWS V14.01,2013-02-04 14:15:00,
2013-02-04 06:17:00,47.3,43.6,29.97,East,84,0.0,1.0,87,0.00,,,0.00,VWS V14.01,2013-02-04 14:17:00,
2013-02-04 06:19:00,47.4,43.7,29.97,East,84,0.0,0.0,87,0.00,,,0.00,VWS V14.01,2013-02-04 14:19:00,
2013-02-04 06:20:00,47.4,43.7,29.97,East,84,0.0,0.0,87,0.00,,,0.00,VWS V14.01,2013-02-04 14:20:00,
2013-02-04 06:22:00,47.5,44.1,29.97,East,85,0.0,0.0,88,0.00,,,0.00,VWS V14.01,2013-02-04 14:22:00,
2013-02-04 06:24:00,47.6,43.9,29.97,East,84,0.0,0.0,87,0.00,,,0.00,VWS V14.01,2013-02-04 14:24:00,
2013-02-04 06:25:00,47.5,43.8,29.97,East,84,0.0,1.0,87,0.00,,,0.00,VWS V14.01,2013-02-04 14:25:00,
2013-02-04 06:27:00,47.6,43.9,29.97,East,94,1.0,1.0,87,0.00,,,0.00,VWS V14.01,2013-02-04 14:27:00,
2013-02-04 06:28:00,47.6,43.9,29.97,ESE,115,1.0,1.0,87,0.00,,,0.00,VWS V14.01,2013-02-04 14:28:00,
2013-02-04 06:29:00,47.6,43.9,29.97,SE,124,1.0,1.0,87,0.00,,,0.00,VWS V14.01,2013-02-04 14:29:00,
2013-02-04 06:31:00,47.7,44.0,29.97,ESE,121,1.0,1.0,87,0.00,,,0.00,VWS V14.01,2013-02-04 14:31:00,
2013-02-04 06:32:00,47.6,43.9,29.97,ESE,118,1.0,1.0,87,0.00,,,0.00,VWS V14.01,2013-02-04 14:32:00,
2013-02-04 06:34:00,47.5,43.8,29.97,ESE,118,1.0,1.0,87,0.00,,,0.00,VWS V14.01,2013-02-04 14:34:00,
2013-02-04 06:36:00,47.5,43.8,29.97,ESE,118,0.0,1.0,87,0.00,,,0.00,VWS V14.01,2013-02-04 14:36:00,
2013-02-04 06:37:00,47.5,43.8,29.97,ESE,118,0.0,1.0,87,0.00,,,0.00,VWS V14.01,2013-02-04 14:37:00,
2013-02-04 06:39:00,47.5,43.8,29.98,ESE,118,1.0,1.0,87,0.00,,,0.00,VWS V14.01,2013-02-04 14:39:00,
2013-02-04 06:41:00,47.6,43.9,29.98,ESE,118,0.0,0.0,87,0.00,,,0.00,VWS V14.01,2013-02-04 14:41:00,
2013-02-04 06:42:00,47.6,43.9,29.98,ESE,118,0.0,0.0,87,0.00,,,0.00,VWS V14.01,2013-02-04 14:42:00,
2013-02-04 06:47:00,47.4,43.7,29.98,ESE,118,0.0,0.0,87,0.00,,,0.00,VWS V14.01,2013-02-04 14:47:00,
2013-02-04 06:48:00,47.4,43.7,29.98,ESE,118,0.0,0.0,87,0.00,,,0.00,VWS V14.01,2013-02-04 14:48:00,
2013-02-04 06:51:00,47.3,43.6,29.98,ESE,118,0.0,0.0,87,0.00,,,0.00,VWS V14.01,2013-02-04 14:51:00,
2013-02-04 06:53:00,47.2,43.5,29.98,ESE,118,0.0,0.0,87,0.00,,,0.00,VWS V14.01,2013-02-04 14:53:00,
2013-02-04 06:54:00,47.1,43.4,29.98,ESE,118,0.0,0.0,87,0.00,,,0.00,VWS V14.01,2013-02-04 14:54:00,
2013-02-04 06:59:00,47.1,43.4,29.98,ESE,117,0.0,0.0,87,0.00,,,0.00,VWS V14.01,2013-02-04 14:59:00,
2013-02-04 07:00:00,47.1,43.4,29.98,ESE,118,0.0,0.0,87,0.00,,,0.00,VWS V14.01,2013-02-04 15:00:00,
2013-02-04 07:01:00,47.2,43.5,29.99,ESE,117,0.0,0.0,87,0.00,,,0.00,VWS V14.01,2013-02-04 15:01:00,
2013-02-04 07:05:00,47.3,43.6,29.99,ESE,118,0.0,0.0,87,0.00,,,0.00,VWS V14.01,2013-02-04 15:05:00,
2013-02-04 07:08:00,47.3,43.6,29.99,West,276,0.0,0.0,87,0.00,,,0.00,VWS V14.01,2013-02-04 15:08:00,
2013-02-04 07:11:00,47.3,43.9,29.99,West,276,0.0,0.0,88,0.00,,,0.00,VWS V14.01,2013-02-04 15:11:00,
2013-02-04 07:13:00,47.6,44.2,29.99,West,276,0.0,0.0,88,0.00,,,0.00,VWS V14.01,2013-02-04 15:13:00,
2013-02-04 07:14:00,47.9,44.8,29.99,West,275,0.0,0.0,89,0.00,,,0.00,VWS V14.01,2013-02-04 15:14:00,
2013-02-04 07:16:00,48.3,45.2,29.99,West,276,0.0,0.0,89,0.00,,,0.00,VWS V14.01,2013-02-04 15:16:00,
2013-02-04 07:18:00,48.9,45.8,29.99,West,276,0.0,0.0,89,0.00,,,0.00,VWS V14.01,2013-02-04 15:18:00,
2013-02-04 07:19:00,49.1,45.7,29.99,West,276,0.0,0.0,88,0.00,,,0.00,VWS V14.01,2013-02-04 15:19:00,
2013-02-04 07:20:00,49.2,45.8,29.99,West,275,0.0,0.0,88,0.00,,,0.00,VWS V14.01,2013-02-04 15:20:00,
2013-02-04 07:23:00,49.3,45.6,29.99,West,276,0.0,0.0,87,0.00,,,0.00,VWS V14.01,2013-02-04 15:23:00,
2013-02-04 07:25:00,49.4,45.7,29.99,West,276,0.0,0.0,87,0.00,,,0.00,VWS V14.01,2013-02-04 15:25:00,
2013-02-04 07:29:00,50.4,46.7,29.99,West,276,0.0,0.0,87,0.00,,,0.00,VWS V14.01,2013-02-04 15:29:00,
2013-02-04 07:30:00,50.8,47.1,29.99,West,276,0.0,0.0,87,0.00,,,0.00,VWS V14.01,2013-02-04 15:30:00,
2013-02-04 07:31:00,51.2,47.5,29.99,West,276,0.0,0.0,87,0.00,,,0.00,VWS V14.01,2013-02-04 15:31:00,
2013-02-04 07:32:00,51.4,47.4,29.99,West,276,0.0,0.0,86,0.00,,,0.00,VWS V14.01,2013-02-04 15:32:00,
2013-02-04 07:35:00,52.1,47.7,29.99,West,276,0.0,0.0,85,0.00,,,0.00,VWS V14.01,2013-02-04 15:35:00,
2013-02-04 07:37:00,52.6,47.6,30.00,West,276,0.0,0.0,83,0.00,,,0.00,VWS V14.01,2013-02-04 15:37:00,
2013-02-04 07:38:00,52.8,47.8,30.00,West,275,0.0,0.0,83,0.00,,,0.00,VWS V14.01,2013-02-04 15:38:00,
2013-02-04 07:40:00,53.3,48.0,29.99,West,276,0.0,0.0,82,0.00,,,0.00,VWS V14.01,2013-02-04 15:40:00,
2013-02-04 07:43:00,53.6,47.3,30.00,West,276,0.0,0.0,79,0.00,,,0.00,VWS V14.01,2013-02-04 15:43:00,
2013-02-04 07:44:00,53.5,47.2,30.00,West,276,0.0,0.0,79,0.00,,,0.00,VWS V14.01,2013-02-04 15:44:00,
2013-02-04 07:45:00,53.4,47.1,30.00,West,275,0.0,0.0,79,0.00,,,0.00,VWS V14.01,2013-02-04 15:45:00,
2013-02-04 07:48:00,53.3,46.6,30.00,North,358,0.0,1.0,78,0.00,,,0.00,VWS V14.01,2013-02-04 15:48:00,
2013-02-04 07:49:00,53.2,46.5,30.00,North,4,0.0,1.0,78,0.00,,,0.00,VWS V14.01,2013-02-04 15:49:00,
2013-02-04 07:51:00,53.2,46.5,30.00,North,4,0.0,1.0,78,0.00,,,0.00,VWS V14.01,2013-02-04 15:51:00,
2013-02-04 07:54:00,53.2,46.5,30.01,North,1,0.0,0.0,78,0.00,,,0.00,VWS V14.01,2013-02-04 15:54:00,
2013-02-04 07:55:00,53.2,46.5,30.01,North,352,0.0,0.0,78,0.00,,,0.00,VWS V14.01,2013-02-04 15:55:00,
2013-02-04 07:56:00,53.2,46.5,30.01,North,349,0.0,0.0,78,0.00,,,0.00,VWS V14.01,2013-02-04 15:56:00,
2013-02-04 07:57:00,53.2,46.5,30.01,WSW,258,0.0,1.0,78,0.00,,,0.00,VWS V14.01,2013-02-04 15:57:00,
2013-02-04 08:00:00,53.0,46.7,30.01,West,259,1.0,2.0,79,0.00,,,0.00,VWS V14.01,2013-02-04 16:00:00,
2013-02-04 08:03:00,52.8,46.8,30.01,WSW,250,0.0,0.0,80,0.00,,,0.00,VWS V14.01,2013-02-04 16:03:00,
2013-02-04 08:04:00,52.8,46.8,30.01,West,259,1.0,1.0,80,0.00,,,0.00,VWS V14.01,2013-02-04 16:04:00,
2013-02-04 08:05:00,52.8,46.8,30.01,West,260,1.0,1.0,80,0.00,,,0.00,VWS V14.01,2013-02-04 16:05:00,
2013-02-04 08:08:00,52.8,46.8,30.01,West,259,0.0,0.0,80,0.00,,,0.00,VWS V14.01,2013-02-04 16:08:00,
2013-02-04 08:10:00,53.0,47.0,30.01,WSW,246,1.0,1.0,80,0.00,,,0.00,VWS V14.01,2013-02-04 16:10:00,
2013-02-04 08:11:00,53.0,47.0,30.01,WSW,247,0.0,1.0,80,0.00,,,0.00,VWS V14.01,2013-02-04 16:11:00,
2013-02-04 08:15:00,53.5,47.5,30.01,WSW,246,0.0,0.0,80,0.00,,,0.00,VWS V14.01,2013-02-04 16:15:00,
2013-02-04 08:16:00,53.8,47.8,30.01,WSW,246,0.0,0.0,80,0.00,,,0.00,VWS V14.01,2013-02-04 16:16:00,
2013-02-04 08:17:00,54.2,48.5,30.01,WSW,246,0.0,0.0,81,0.00,,,0.00,VWS V14.01,2013-02-04 16:17:00,
2013-02-04 08:19:00,54.9,48.9,30.01,WSW,246,0.0,0.0,80,0.00,,,0.00,VWS V14.01,2013-02-04 16:19:00,
2013-02-04 08:21:00,55.7,49.3,30.01,WSW,246,0.0,0.0,79,0.00,,,0.00,VWS V14.01,2013-02-04 16:21:00,
2013-02-04 08:22:00,56.2,49.8,30.01,WSW,246,0.0,0.0,79,0.00,,,0.00,VWS V14.01,2013-02-04 16:22:00,
2013-02-04 08:23:00,56.6,49.8,30.01,WSW,246,0.0,0.0,78,0.00,,,0.00,VWS V14.01,2013-02-04 16:23:00,
2013-02-04 08:24:00,57.0,49.9,30.01,WSW,247,0.0,0.0,77,0.00,,,0.00,VWS V14.01,2013-02-04 16:24:00,
2013-02-04 08:27:00,57.8,49.9,30.01,WSW,246,0.0,0.0,75,0.00,,,0.00,VWS V14.01,2013-02-04 16:27:00,
2013-02-04 08:28:00,57.9,49.7,30.01,WSW,246,0.0,1.0,74,0.00,,,0.00,VWS V14.01,2013-02-04 16:28:00,
2013-02-04 08:29:00,58.0,49.8,30.01,SE,137,1.0,1.0,74,0.00,,,0.00,VWS V14.01,2013-02-04 16:29:00,
2013-02-04 08:31:00,58.0,49.4,30.01,SE,128,2.0,2.0,73,0.00,,,0.00,VWS V14.01,2013-02-04 16:31:00,
2013-02-04 08:34:00,57.9,50.0,30.01,ENE,68,1.0,1.0,75,0.00,,,0.00,VWS V14.01,2013-02-04 16:34:00,
2013-02-04 08:36:00,58.2,50.3,30.01,SSE,149,0.0,0.0,75,0.00,,,0.00,VWS V14.01,2013-02-04 16:36:00,
2013-02-04 08:37:00,58.3,50.1,30.01,SSE,149,0.0,0.0,74,0.00,,,0.00,VWS V14.01,2013-02-04 16:37:00,
2013-02-04 08:39:00,58.7,50.5,30.01,SSE,150,0.0,0.0,74,0.00,,,0.00,VWS V14.01,2013-02-04 16:39:00,
2013-02-04 08:41:00,58.9,50.3,30.01,SSE,149,0.0,1.0,73,0.00,,,0.00,VWS V14.01,2013-02-04 16:41:00,
2013-02-04 08:42:00,59.0,50.4,30.01,SSE,149,0.0,0.0,73,0.00,,,0.00,VWS V14.01,2013-02-04 16:42:00,
2013-02-04 08:46:00,59.7,51.0,30.01,SSE,149,0.0,0.0,73,0.00,,,0.00,VWS V14.01,2013-02-04 16:46:00,
2013-02-04 08:47:00,59.8,50.8,30.01,WSW,238,0.0,1.0,72,0.00,,,0.00,VWS V14.01,2013-02-04 16:47:00,
2013-02-04 08:48:00,59.9,50.9,30.01,WSW,238,0.0,1.0,72,0.00,,,0.00,VWS V14.01,2013-02-04 16:48:00,
2013-02-04 08:51:00,59.9,51.2,30.01,SW,236,0.0,0.0,73,0.00,,,0.00,VWS V14.01,2013-02-04 16:51:00,
2013-02-04 08:53:00,59.8,51.5,30.01,SW,236,0.0,0.0,74,0.00,,,0.00,VWS V14.01,2013-02-04 16:53:00,
2013-02-04 08:55:00,59.8,51.5,30.01,WSW,239,0.0,0.0,74,0.00,,,0.00,VWS V14.01,2013-02-04 16:55:00,
2013-02-04 08:56:00,59.7,51.4,30.01,SW,224,1.0,1.0,74,0.00,,,0.00,VWS V14.01,2013-02-04 16:56:00,
2013-02-04 08:58:00,59.9,52.0,30.01,SE,136,1.0,1.0,75,0.00,,,0.00,VWS V14.01,2013-02-04 16:58:00,
2013-02-04 08:59:00,60.0,51.7,30.01,SE,124,2.0,2.0,74,0.00,,,0.00,VWS V14.01,2013-02-04 16:59:00,
2013-02-04 09:01:00,60.2,51.9,30.01,ESE,120,0.0,1.0,74,0.00,,,0.00,VWS V14.01,2013-02-04 17:01:00,
2013-02-04 09:04:00,60.8,52.1,30.02,West,276,1.0,1.0,73,0.00,,,0.00,VWS V14.01,2013-02-04 17:04:00,
2013-02-04 09:07:00,60.6,51.9,30.02,WSW,258,1.0,4.0,73,0.00,,,0.00,VWS V14.01,2013-02-04 17:07:00,
2013-02-04 09:09:00,60.3,52.0,30.02,WSW,258,3.0,4.0,74,0.00,,,0.00,VWS V14.01,2013-02-04 17:09:00,
2013-02-04 09:12:00,59.8,51.9,30.02,West,263,1.0,4.0,75,0.00,,,0.00,VWS V14.01,2013-02-04 17:12:00,
2013-02-04 09:13:00,59.7,51.8,30.02,WSW,254,4.0,4.0,75,0.00,,,0.00,VWS V14.01,2013-02-04 17:13:00,
2013-02-04 09:14:00,59.5,51.9,30.02,West,276,2.0,2.0,76,0.00,,,0.00,VWS V14.01,2013-02-04 17:14:00,
2013-02-04 09:17:00,59.4,52.2,30.02,WNW,285,3.0,4.0,77,0.00,,,0.00,VWS V14.01,2013-02-04 17:17:00,
2013-02-04 09:19:00,59.4,52.2,30.02,WNW,295,3.0,4.0,77,0.00,,,0.00,VWS V14.01,2013-02-04 17:19:00,
2013-02-04 09:21:00,59.4,52.2,30.02,WSW,249,4.0,5.0,77,0.00,,,0.00,VWS V14.01,2013-02-04 17:21:00,
2013-02-04 09:22:00,59.4,51.8,30.02,West,277,3.0,3.0,76,0.00,,,0.00,VWS V14.01,2013-02-04 17:22:00,
2013-02-04 09:23:00,59.3,51.8,30.02,WSW,240,3.0,4.0,76,0.00,,,0.00,VWS V14.01,2013-02-04 17:23:00,
2013-02-04 09:26:00,59.1,51.5,30.02,West,271,3.0,4.0,76,0.00,,,0.00,VWS V14.01,2013-02-04 17:26:00,
2013-02-04 09:27:00,59.1,51.5,30.02,WSW,243,4.0,4.0,76,0.00,,,0.00,VWS V14.01,2013-02-04 17:27:00,
2013-02-04 09:28:00,59.0,51.5,30.02,WSW,240,3.0,4.0,76,0.00,,,0.00,VWS V14.01,2013-02-04 17:28:00,
2013-02-04 09:29:00,59.0,51.8,30.02,WSW,245,3.0,4.0,77,0.00,,,0.00,VWS V14.01,2013-02-04 17:29:00,
2013-02-04 09:32:00,59.1,51.5,30.02,WSW,255,2.0,2.0,76,0.00,,,0.00,VWS V14.01,2013-02-04 17:32:00,
2013-02-04 09:33:00,59.1,51.5,30.02,West,269,3.0,3.0,76,0.00,,,0.00,VWS V14.01,2013-02-04 17:33:00,
2013-02-04 09:34:00,59.2,51.7,30.02,WSW,250,3.0,3.0,76,0.00,,,0.00,VWS V14.01,2013-02-04 17:34:00,
2013-02-04 09:36:00,59.4,51.8,30.02,West,273,1.0,2.0,76,0.00,,,0.00,VWS V14.01,2013-02-04 17:36:00,
2013-02-04 09:38:00,59.7,52.1,30.02,WSW,252,1.0,2.0,76,0.00,,,0.00,VWS V14.01,2013-02-04 17:38:00,
2013-02-04 09:39:00,59.8,51.9,30.02,WSW,240,2.0,2.0,75,0.00,,,0.00,VWS V14.01,2013-02-04 17:39:00,
2013-02-04 09:41:00,60.0,51.7,30.02,WSW,243,1.0,2.0,74,0.00,,,0.00,VWS V14.01,2013-02-04 17:41:00,
2013-02-04 09:43:00,60.1,51.8,30.02,WSW,245,1.0,1.0,74,0.00,,,0.00,VWS V14.01,2013-02-04 17:43:00,
2013-02-04 09:44:00,60.3,52.0,30.02,WSW,246,2.0,2.0,74,0.00,,,0.00,VWS V14.01,2013-02-04 17:44:00,
2013-02-04 09:48:00,60.5,51.8,30.02,West,271,1.0,2.0,73,0.00,,,0.00,VWS V14.01,2013-02-04 17:48:00,
2013-02-04 09:49:00,60.7,52.0,30.02,West,262,1.0,2.0,73,0.00,,,0.00,VWS V14.01,2013-02-04 17:49:00,
2013-02-04 09:50:00,60.7,51.6,30.02,West,262,1.0,2.0,72,0.00,,,0.00,VWS V14.01,2013-02-04 17:50:00,
2013-02-04 09:55:00,61.1,52.0,30.02,WSW,249,2.0,3.0,72,0.00,,,0.00,VWS V14.01,2013-02-04 17:55:00,
2013-02-04 09:57:00,61.2,51.3,30.02,WSW,240,1.0,3.0,70,0.00,,,0.00,VWS V14.01,2013-02-04 17:57:00,
2013-02-04 10:00:00,61.6,51.7,30.02,SW,225,2.0,3.0,70,0.00,,,0.00,VWS V14.01,2013-02-04 18:00:00,
2013-02-04 10:02:00,61.8,51.9,30.02,WSW,252,2.0,2.0,70,0.00,,,0.00,VWS V14.01,2013-02-04 18:02:00,
2013-02-04 10:03:00,62.0,51.7,30.02,West,271,3.0,3.0,69,0.00,,,0.00,VWS V14.01,2013-02-04 18:03:00,
2013-02-04 10:07:00,62.4,51.3,30.02,West,271,1.0,3.0,67,0.00,,,0.00,VWS V14.01,2013-02-04 18:07:00,
2013-02-04 10:08:00,62.6,51.5,30.02,West,259,2.0,2.0,67,0.00,,,0.00,VWS V14.01,2013-02-04 18:08:00,
2013-02-04 10:11:00,62.7,51.2,30.02,NW,308,0.0,0.0,66,0.00,,,0.00,VWS V14.01,2013-02-04 18:11:00,
2013-02-04 10:12:00,62.9,51.4,30.02,West,266,1.0,2.0,66,0.00,,,0.00,VWS V14.01,2013-02-04 18:12:00,
2013-02-04 10:13:00,63.1,52.0,30.02,WSW,250,0.0,2.0,67,0.00,,,0.00,VWS V14.01,2013-02-04 18:13:00,
2013-02-04 10:15:00,63.5,52.4,30.02,NNE,28,2.0,2.0,67,0.00,,,0.00,VWS V14.01,2013-02-04 18:15:00,
2013-02-04 10:17:00,63.8,52.7,30.02,NW,320,1.0,2.0,67,0.00,,,0.00,VWS V14.01,2013-02-04 18:17:00,
2013-02-04 10:19:00,63.9,52.3,30.02,NNW,338,2.0,4.0,66,0.00,,,0.00,VWS V14.01,2013-02-04 18:19:00,
2013-02-04 10:21:00,64.1,52.5,30.02,SSE,165,1.0,2.0,66,0.00,,,0.00,VWS V14.01,2013-02-04 18:21:00,
2013-02-04 10:22:00,64.1,52.5,30.02,WNW,290,1.0,2.0,66,0.00,,,0.00,VWS V14.01,2013-02-04 18:22:00,
2013-02-04 10:24:00,64.2,52.6,30.02,NNW,339,2.0,2.0,66,0.00,,,0.00,VWS V14.01,2013-02-04 18:24:00,
2013-02-04 10:27:00,64.0,51.6,30.02,WNW,303,0.0,0.0,64,0.00,,,0.00,VWS V14.01,2013-02-04 18:27:00,
2013-02-04 10:28:00,64.0,52.0,30.02,WNW,303,0.0,0.0,65,0.00,,,0.00,VWS V14.01,2013-02-04 18:28:00,
2013-02-04 10:29:00,64.1,52.1,30.02,NNW,332,1.0,2.0,65,0.00,,,0.00,VWS V14.01,2013-02-04 18:29:00,
2013-02-04 10:33:00,64.4,52.0,30.02,NNW,347,0.0,1.0,64,0.00,,,0.00,VWS V14.01,2013-02-04 18:33:00,
2013-02-04 10:34:00,64.4,52.0,30.02,SW,236,1.0,2.0,64,0.00,,,0.00,VWS V14.01,2013-02-04 18:34:00,
2013-02-04 10:38:00,64.9,52.5,30.01,NW,323,0.0,1.0,64,0.00,,,0.00,VWS V14.01,2013-02-04 18:38:00,
2013-02-04 10:39:00,65.0,52.5,30.01,NW,319,0.0,1.0,64,0.00,,,0.00,VWS V14.01,2013-02-04 18:39:00,
2013-02-04 10:41:00,65.1,52.2,30.01,SW,232,3.0,3.0,63,0.00,,,0.00,VWS V14.01,2013-02-04 18:41:00,
2013-02-04 10:43:00,65.1,52.2,30.01,WSW,246,3.0,3.0,63,0.00,,,0.00,VWS V14.01,2013-02-04 18:43:00,
2013-02-04 10:44:00,65.1,52.2,30.01,SW,214,2.0,3.0,63,0.00,,,0.00,VWS V14.01,2013-02-04 18:44:00,
2013-02-04 10:45:00,65.2,52.3,30.01,South,181,3.0,3.0,63,0.00,,,0.00,VWS V14.01,2013-02-04 18:45:00,
2013-02-04 10:46:00,65.3,52.4,30.01,SE,135,2.0,3.0,63,0.00,,,0.00,VWS V14.01,2013-02-04 18:46:00,
2013-02-04 10:50:00,65.6,52.2,30.01,WSW,252,1.0,2.0,62,0.00,,,0.00,VWS V14.01,2013-02-04 18:50:00,
2013-02-04 10:51:00,65.7,52.3,30.01,WSW,244,1.0,2.0,62,0.00,,,0.00,VWS V14.01,2013-02-04 18:51:00,
2013-02-04 10:53:00,66.0,52.2,30.01,SSE,158,0.0,2.0,61,0.00,,,0.00,VWS V14.01,2013-02-04 18:53:00,
2013-02-04 10:56:00,66.2,51.5,30.00,ENE,73,2.0,2.0,59,0.00,,,0.00,VWS V14.01,2013-02-04 18:56:00,
2013-02-04 10:57:00,66.2,51.5,30.00,ENE,74,1.0,2.0,59,0.00,,,0.00,VWS V14.01,2013-02-04 18:57:00,
2013-02-04 10:59:00,66.3,51.6,30.01,NE,34,1.0,1.0,59,0.00,,,0.00,VWS V14.01,2013-02-04 18:59:00,
2013-02-04 11:00:00,66.4,51.7,30.01,East,80,0.0,2.0,59,0.00,,,0.00,VWS V14.01,2013-02-04 19:00:00,
2013-02-04 11:03:00,66.6,52.3,30.01,WSW,244,1.0,1.0,60,0.00,,,0.00,VWS V14.01,2013-02-04 19:03:00,
2013-02-04 11:04:00,66.7,52.4,30.01,WNW,285,2.0,2.0,60,0.00,,,0.00,VWS V14.01,2013-02-04 19:04:00,
2013-02-04 11:06:00,66.9,52.1,30.01,West,267,2.0,2.0,59,0.00,,,0.00,VWS V14.01,2013-02-04 19:06:00,
2013-02-04 11:09:00,67.2,52.4,30.01,WSW,257,3.0,3.0,59,0.00,,,0.00,VWS V14.01,2013-02-04 19:09:00,
2013-02-04 11:10:00,67.3,52.5,30.01,WSW,247,4.0,7.0,59,0.00,,,0.00,VWS V14.01,2013-02-04 19:10:00,
2013-02-04 11:11:00,67.1,51.4,30.01,WNW,282,3.0,8.0,57,0.00,,,0.00,VWS V14.01,2013-02-04 19:11:00,
2013-02-04 11:12:00,67.0,51.8,30.00,WSW,248,3.0,5.0,58,0.00,,,0.00,VWS V14.01,2013-02-04 19:12:00,
2013-02-04 11:16:00,66.8,51.6,30.00,SW,222,3.0,4.0,58,0.00,,,0.00,VWS V14.01,2013-02-04 19:16:00,
2013-02-04 11:17:00,66.9,51.7,30.00,WSW,248,5.0,5.0,58,0.00,,,0.00,VWS V14.01,2013-02-04 19:17:00,
2013-02-04 11:18:00,66.9,51.7,30.00,WNW,297,4.0,6.0,58,0.00,,,0.00,VWS V14.01,2013-02-04 19:18:00,
2013-02-04 11:19:00,67.0,51.3,30.00,West,273,5.0,5.0,57,0.00,,,0.00,VWS V14.01,2013-02-04 19:19:00,
2013-02-04 11:23:00,67.2,51.5,30.00,West,281,4.0,4.0,57,0.00,,,0.00,VWS V14.01,2013-02-04 19:23:00,
2013-02-04 11:24:00,67.2,51.0,30.00,WSW,240,4.0,4.0,56,0.00,,,0.00,VWS V14.01,2013-02-04 19:24:00,
2013-02-04 11:27:00,67.5,51.8,30.00,WSW,253,1.0,2.0,57,0.00,,,0.00,VWS V14.01,2013-02-04 19:27:00,
2013-02-04 11:29:00,67.7,51.5,30.00,NW,304,0.0,2.0,56,0.00,,,0.00,VWS V14.01,2013-02-04 19:29:00,
2013-02-04 11:30:00,67.8,51.1,30.00,WSW,248,1.0,1.0,55,0.00,,,0.00,VWS V14.01,2013-02-04 19:30:00,
2013-02-04 11:31:00,67.8,51.1,30.00,WNW,293,2.0,4.0,55,0.00,,,0.00,VWS V14.01,2013-02-04 19:31:00,
2013-02-04 11:34:00,67.8,50.6,30.00,West,277,6.0,6.0,54,0.00,,,0.00,VWS V14.01,2013-02-04 19:34:00,
2013-02-04 11:36:00,67.6,50.4,30.00,West,270,5.0,5.0,54,0.00,,,0.00,VWS V14.01,2013-02-04 19:36:00,
2013-02-04 11:37:00,67.4,50.2,30.00,WNW,282,3.0,5.0,54,0.00,,,0.00,VWS V14.01,2013-02-04 19:37:00,
2013-02-04 11:39:00,67.3,50.6,29.99,West,260,1.0,3.0,55,0.00,,,0.00,VWS V14.01,2013-02-04 19:39:00,
2013-02-04 11:41:00,67.4,50.7,29.99,WSW,250,1.0,1.0,55,0.00,,,0.00,VWS V14.01,2013-02-04 19:41:00,
2013-02-04 11:42:00,67.5,50.8,29.99,WSW,243,2.0,3.0,55,0.00,,,0.00,VWS V14.01,2013-02-04 19:42:00,
2013-02-04 11:43:00,67.6,50.9,29.99,SW,225,2.0,3.0,55,0.00,,,0.00,VWS V14.01,2013-02-04 19:43:00,
2013-02-04 11:46:00,67.9,51.6,29.99,SSW,208,2.0,4.0,56,0.00,,,0.00,VWS V14.01,2013-02-04 19:46:00,
2013-02-04 11:47:00,68.0,51.2,29.99,SW,222,2.0,3.0,55,0.00,,,0.00,VWS V14.01,2013-02-04 19:47:00,
2013-02-04 11:49:00,68.1,51.3,29.99,SW,217,1.0,1.0,55,0.00,,,0.00,VWS V14.01,2013-02-04 19:49:00,
2013-02-04 11:50:00,68.2,51.4,29.99,WSW,256,2.0,2.0,55,0.00,,,0.00,VWS V14.01,2013-02-04 19:50:00,
2013-02-04 11:52:00,68.3,51.5,29.99,West,271,0.0,1.0,55,0.00,,,0.00,VWS V14.01,2013-02-04 19:52:00,
2013-02-04 11:53:00,68.4,51.6,29.99,North,1,1.0,2.0,55,0.00,,,0.00,VWS V14.01,2013-02-04 19:53:00,
2013-02-04 11:55:00,68.7,51.9,29.98,NW,326,1.0,1.0,55,0.00,,,0.00,VWS V14.01,2013-02-04 19:55:00,
2013-02-04 11:56:00,68.8,52.5,29.98,NW,311,2.0,2.0,56,0.00,,,0.00,VWS V14.01,2013-02-04 19:56:00,
2013-02-04 11:57:00,69.0,53.2,29.98,NNW,347,1.0,4.0,57,0.00,,,0.00,VWS V14.01,2013-02-04 19:57:00,
2013-02-04 11:59:00,69.3,54.8,29.98,North,8,5.0,7.0,60,0.00,,,0.00,VWS V14.01,2013-02-04 19:59:00,
2013-02-04 12:01:00,69.2,54.7,29.98,NW,304,2.0,3.0,60,0.00,,,0.00,VWS V14.01,2013-02-04 20:01:00,
2013-02-04 12:02:00,69.3,55.3,29.98,West,269,4.0,6.0,61,0.00,,,0.00,VWS V14.01,2013-02-04 20:02:00,
2013-02-04 12:06:00,69.2,55.6,29.98,West,281,3.0,3.0,62,0.00,,,0.00,VWS V14.01,2013-02-04 20:06:00,
2013-02-04 12:08:00,69.3,54.4,29.98,SSW,211,2.0,5.0,59,0.00,,,0.00,VWS V14.01,2013-02-04 20:08:00,
2013-02-04 12:12:00,69.1,55.1,29.98,WNW,296,2.0,2.0,61,0.00,,,0.00,VWS V14.01,2013-02-04 20:12:00,
2013-02-04 12:14:00,69.0,54.5,29.98,West,259,3.0,4.0,60,0.00,,,0.00,VWS V14.01,2013-02-04 20:14:00,
2013-02-04 12:16:00,68.8,54.8,29.97,SSW,211,1.0,2.0,61,0.00,,,0.00,VWS V14.01,2013-02-04 20:16:00,
2013-02-04 12:17:00,68.9,54.9,29.97,SW,228,0.0,1.0,61,0.00,,,0.00,VWS V14.01,2013-02-04 20:17:00,
2013-02-04 12:20:00,69.2,55.2,29.97,WSW,249,2.0,3.0,61,0.00,,,0.00,VWS V14.01,2013-02-04 20:20:00,
2013-02-04 12:22:00,69.5,55.5,29.97,SW,236,4.0,6.0,61,0.00,,,0.00,VWS V14.01,2013-02-04 20:22:00,
2013-02-04 12:27:00,68.5,55.0,29.97,SW,229,4.0,7.0,62,0.00,,,0.00,VWS V14.01,2013-02-04 20:27:00,
2013-02-04 12:28:00,68.2,54.7,29.97,WSW,240,3.0,4.0,62,0.00,,,0.00,VWS V14.01,2013-02-04 20:28:00,
2013-02-04 12:30:00,68.1,54.6,29.97,West,259,5.0,5.0,62,0.00,,,0.00,VWS V14.01,2013-02-04 20:30:00,
2013-02-04 12:32:00,68.0,55.0,29.97,West,266,0.0,1.0,63,0.00,,,0.00,VWS V14.01,2013-02-04 20:32:00,
2013-02-04 12:34:00,67.8,54.8,29.97,SSW,212,0.0,2.0,63,0.00,,,0.00,VWS V14.01,2013-02-04 20:34:00,
2013-02-04 12:37:00,67.9,54.8,29.96,West,260,3.0,6.0,63,0.00,,,0.00,VWS V14.01,2013-02-04 20:37:00,
2013-02-04 12:38:00,67.9,55.3,29.96,SSW,208,6.0,6.0,64,0.00,,,0.00,VWS V14.01,2013-02-04 20:38:00,
2013-02-04 12:40:00,67.7,54.7,29.96,SW,229,4.0,7.0,63,0.00,,,0.00,VWS V14.01,2013-02-04 20:40:00,
2013-02-04 12:42:00,67.6,55.0,29.96,SW,218,5.0,5.0,64,0.00,,,0.00,VWS V14.01,2013-02-04 20:42:00,
2013-02-04 12:44:00,67.7,55.1,29.96,WSW,244,2.0,6.0,64,0.00,,,0.00,VWS V14.01,2013-02-04 20:44:00,
2013-02-04 12:45:00,67.7,55.1,29.96,West,267,4.0,7.0,64,0.00,,,0.00,VWS V14.01,2013-02-04 20:45:00,
2013-02-04 12:48:00,67.6,55.0,29.96,NNE,23,2.0,2.0,64,0.00,,,0.00,VWS V14.01,2013-02-04 20:48:00,
2013-02-04 12:49:00,67.6,55.0,29.96,NW,314,2.0,2.0,64,0.00,,,0.00,VWS V14.01,2013-02-04 20:49:00,
2013-02-04 12:52:00,67.8,55.2,29.96,West,261,3.0,3.0,64,0.00,,,0.00,VWS V14.01,2013-02-04 20:52:00,
2013-02-04 12:53:00,67.9,55.3,29.96,SW,233,4.0,6.0,64,0.00,,,0.00,VWS V14.01,2013-02-04 20:53:00,
2013-02-04 12:54:00,67.9,54.8,29.96,SW,217,6.0,7.0,63,0.00,,,0.00,VWS V14.01,2013-02-04 20:54:00,
2013-02-04 12:59:00,67.8,55.2,29.96,WSW,255,0.0,2.0,64,0.00,,,0.00,VWS V14.01,2013-02-04 20:59:00,
2013-02-04 13:00:00,67.9,55.3,29.95,WSW,256,4.0,4.0,64,0.00,,,0.00,VWS V14.01,2013-02-04 21:00:00,
2013-02-04 13:01:00,68.0,55.4,29.95,WSW,243,6.0,6.0,64,0.00,,,0.00,VWS V14.01,2013-02-04 21:01:00,
2013-02-04 13:06:00,67.7,55.1,29.95,SW,214,4.0,4.0,64,0.00,,,0.00,VWS V14.01,2013-02-04 21:06:00,
2013-02-04 13:08:00,67.7,55.1,29.95,West,259,2.0,5.0,64,0.00,,,0.00,VWS V14.01,2013-02-04 21:08:00,
2013-02-04 13:12:00,68.4,55.8,29.95,West,262,2.0,3.0,64,0.00,,,0.00,VWS V14.01,2013-02-04 21:12:00,
2013-02-04 13:13:00,68.5,55.9,29.95,NW,320,4.0,6.0,64,0.00,,,0.00,VWS V14.01,2013-02-04 21:13:00,
2013-02-04 13:16:00,68.8,57.0,29.95,ENE,65,2.0,2.0,66,0.00,,,0.00,VWS V14.01,2013-02-04 21:16:00,
2013-02-04 13:17:00,69.0,56.8,29.95,WNW,303,2.0,3.0,65,0.00,,,0.00,VWS V14.01,2013-02-04 21:17:00,
2013-02-04 13:18:00,69.0,56.3,29.94,NW,311,2.0,2.0,64,0.00,,,0.00,VWS V14.01,2013-02-04 21:18:00,
2013-02-04 13:21:00,68.9,56.2,29.94,WNW,284,1.0,3.0,64,0.00,,,0.00,VWS V14.01,2013-02-04 21:21:00,
2013-02-04 13:22:00,68.8,56.1,29.94,WSW,249,2.0,2.0,64,0.00,,,0.00,VWS V14.01,2013-02-04 21:22:00,
2013-02-04 13:23:00,68.6,56.0,29.94,SW,229,2.0,2.0,64,0.00,,,0.00,VWS V14.01,2013-02-04 21:23:00,
2013-02-04 13:26:00,68.4,56.2,29.94,West,262,2.0,3.0,65,0.00,,,0.00,VWS V14.01,2013-02-04 21:26:00,
2013-02-04 13:30:00,68.6,56.8,29.94,WSW,249,3.0,4.0,66,0.00,,,0.00,VWS V14.01,2013-02-04 21:30:00,
2013-02-04 13:31:00,68.6,56.0,29.94,WSW,245,3.0,4.0,64,0.00,,,0.00,VWS V14.01,2013-02-04 21:31:00,
2013-02-04 13:35:00,68.3,56.1,29.94,NW,314,3.0,4.0,65,0.00,,,0.00,VWS V14.01,2013-02-04 21:35:00,
2013-02-04 13:36:00,68.1,55.5,29.94,NW,319,0.0,1.0,64,0.00,,,0.00,VWS V14.01,2013-02-04 21:36:00,
2013-02-04 13:37:00,68.1,55.9,29.94,WNW,284,1.0,1.0,65,0.00,,,0.00,VWS V14.01,2013-02-04 21:37:00,
2013-02-04 13:38:00,68.1,55.9,29.94,West,264,5.0,5.0,65,0.00,,,0.00,VWS V14.01,2013-02-04 21:38:00,
2013-02-04 13:41:00,68.0,56.2,29.93,West,276,1.0,1.0,66,0.00,,,0.00,VWS V14.01,2013-02-04 21:41:00,
2013-02-04 13:44:00,68.0,55.8,29.93,West,266,4.0,4.0,65,0.00,,,0.00,VWS V14.01,2013-02-04 21:44:00,
2013-02-04 13:45:00,67.9,55.3,29.93,South,173,2.0,5.0,64,0.00,,,0.00,VWS V14.01,2013-02-04 21:45:00,
2013-02-04 13:46:00,67.7,55.1,29.93,SSW,198,3.0,3.0,64,0.00,,,0.00,VWS V14.01,2013-02-04 21:46:00,
2013-02-04 13:47:00,67.6,55.4,29.93,SSW,203,3.0,4.0,65,0.00,,,0.00,VWS V14.01,2013-02-04 21:47:00,
2013-02-04 13:50:00,67.5,55.8,29.93,SW,233,2.0,2.0,66,0.00,,,0.00,VWS V14.01,2013-02-04 21:50:00,
2013-02-04 13:52:00,67.6,55.8,29.93,WSW,241,4.0,4.0,66,0.00,,,0.00,VWS V14.01,2013-02-04 21:52:00,
2013-02-04 13:53:00,67.7,56.0,29.93,SSW,208,3.0,7.0,66,0.00,,,0.00,VWS V14.01,2013-02-04 21:53:00,
2013-02-04 13:57:00,67.6,55.4,29.93,SW,225,2.0,2.0,65,0.00,,,0.00,VWS V14.01,2013-02-04 21:57:00,
2013-02-04 13:59:00,67.5,55.3,29.93,WNW,291,2.0,2.0,65,0.00,,,0.00,VWS V14.01,2013-02-04 21:59:00,
2013-02-04 14:01:00,67.8,56.0,29.93,West,269,1.0,2.0,66,0.00,,,0.00,VWS V14.01,2013-02-04 22:01:00,
2013-02-04 14:02:00,67.9,56.1,29.93,WSW,256,2.0,4.0,66,0.00,,,0.00,VWS V14.01,2013-02-04 22:02:00,
2013-02-04 14:04:00,68.1,55.9,29.93,WNW,293,3.0,4.0,65,0.00,,,0.00,VWS V14.01,2013-02-04 22:04:00,
2013-02-04 14:06:00,68.0,55.4,29.93,West,262,3.0,4.0,64,0.00,,,0.00,VWS V14.01,2013-02-04 22:06:00,
2013-02-04 14:09:00,67.9,55.7,29.93,SW,233,3.0,5.0,65,0.00,,,0.00,VWS V14.01,2013-02-04 22:09:00,
2013-02-04 14:11:00,68.0,55.4,29.93,WNW,285,3.0,3.0,64,0.00,,,0.00,VWS V14.01,2013-02-04 22:11:00,
2013-02-04 14:14:00,67.9,55.3,29.92,West,277,3.0,3.0,64,0.00,,,0.00,VWS V14.01,2013-02-04 22:14:00,
2013-02-04 14:15:00,67.9,55.3,29.92,SW,226,2.0,3.0,64,0.00,,,0.00,VWS V14.01,2013-02-04 22:15:00,
2013-02-04 14:17:00,68.2,56.0,29.92,WSW,241,5.0,5.0,65,0.00,,,0.00,VWS V14.01,2013-02-04 22:17:00,
2013-02-04 14:18:00,68.3,55.7,29.92,West,271,2.0,3.0,64,0.00,,,0.00,VWS V14.01,2013-02-04 22:18:00,
2013-02-04 14:20:00,68.6,56.0,29.92,NNW,343,1.0,4.0,64,0.00,,,0.00,VWS V14.01,2013-02-04 22:20:00,
2013-02-04 14:24:00,69.1,56.0,29.92,WNW,287,1.0,5.0,63,0.00,,,0.00,VWS V14.01,2013-02-04 22:24:00,
2013-02-04 14:25:00,69.0,55.5,29.92,NW,316,3.0,4.0,62,0.00,,,0.00,VWS V14.01,2013-02-04 22:25:00,
2013-02-04 14:28:00,68.8,55.3,29.92,NW,323,2.0,3.0,62,0.00,,,0.00,VWS V14.01,2013-02-04 22:28:00,
2013-02-04 14:29:00,68.8,55.7,29.92,NNW,335,1.0,1.0,63,0.00,,,0.00,VWS V14.01,2013-02-04 22:29:00,
2013-02-04 14:31:00,68.8,55.7,29.92,WSW,249,3.0,3.0,63,0.00,,,0.00,VWS V14.01,2013-02-04 22:31:00,
2013-02-04 14:34:00,69.2,55.6,29.92,North,352,3.0,4.0,62,0.00,,,0.00,VWS V14.01,2013-02-04 22:34:00,
2013-02-04 14:35:00,69.1,55.1,29.92,NW,307,3.0,3.0,61,0.00,,,0.00,VWS V14.01,2013-02-04 22:35:00,
2013-02-04 14:37:00,68.8,54.4,29.92,North,354,3.0,8.0,60,0.00,,,0.00,VWS V14.01,2013-02-04 22:37:00,
2013-02-04 14:40:00,68.3,54.8,29.92,NW,326,1.0,1.0,62,0.00,,,0.00,VWS V14.01,2013-02-04 22:40:00,
2013-02-04 14:43:00,68.4,54.9,29.92,NNE,16,3.0,5.0,62,0.00,,,0.00,VWS V14.01,2013-02-04 22:43:00,
2013-02-04 14:44:00,68.3,54.3,29.92,NW,316,1.0,5.0,61,0.00,,,0.00,VWS V14.01,2013-02-04 22:44:00,
2013-02-04 14:45:00,68.2,54.7,29.92,NNW,335,3.0,4.0,62,0.00,,,0.00,VWS V14.01,2013-02-04 22:45:00,
2013-02-04 14:46:00,68.2,54.2,29.92,NW,326,1.0,4.0,61,0.00,,,0.00,VWS V14.01,2013-02-04 22:46:00,
2013-02-04 14:48:00,68.1,54.6,29.92,West,278,2.0,2.0,62,0.00,,,0.00,VWS V14.01,2013-02-04 22:48:00,
2013-02-04 14:50:00,67.9,54.4,29.92,WNW,294,2.0,4.0,62,0.00,,,0.00,VWS V14.01,2013-02-04 22:50:00,
2013-02-04 14:53:00,67.7,54.2,29.92,NNW,345,3.0,6.0,62,0.00,,,0.00,VWS V14.01,2013-02-04 22:53:00,
2013-02-04 14:55:00,67.6,54.6,29.92,NW,318,2.0,2.0,63,0.00,,,0.00,VWS V14.01,2013-02-04 22:55:00,
2013-02-04 14:58:00,67.7,54.2,29.92,WSW,253,2.0,3.0,62,0.00,,,0.00,VWS V14.01,2013-02-04 22:58:00,
2013-02-04 14:59:00,67.7,54.7,29.92,NW,323,1.0,2.0,63,0.00,,,0.00,VWS V14.01,2013-02-04 22:59:00,
2013-02-04 15:02:00,67.9,54.4,29.91,NNW,336,3.0,3.0,62,0.00,,,0.00,VWS V14.01,2013-02-04 23:02:00,
2013-02-04 15:03:00,67.9,54.0,29.91,NNW,333,1.0,4.0,61,0.00,,,0.00,VWS V14.01,2013-02-04 23:03:00,
2013-02-04 15:04:00,67.9,54.4,29.92,WNW,300,1.0,1.0,62,0.00,,,0.00,VWS V14.01,2013-02-04 23:04:00,
2013-02-04 15:09:00,68.1,54.6,29.92,NNW,338,2.0,4.0,62,0.00,,,0.00,VWS V14.01,2013-02-04 23:09:00,
2013-02-04 15:10:00,68.1,54.2,29.92,NNW,348,0.0,2.0,61,0.00,,,0.00,VWS V14.01,2013-02-04 23:10:00,
2013-02-04 15:12:00,68.2,54.7,29.92,NNW,335,1.0,2.0,62,0.00,,,0.00,VWS V14.01,2013-02-04 23:12:00,
2013-02-04 15:15:00,68.5,54.5,29.92,NNW,338,1.0,2.0,61,0.00,,,0.00,VWS V14.01,2013-02-04 23:15:00,
2013-02-04 15:16:00,68.5,54.5,29.92,North,354,1.0,2.0,61,0.00,,,0.00,VWS V14.01,2013-02-04 23:16:00,
2013-02-04 15:17:00,68.6,55.1,29.92,West,263,3.0,4.0,62,0.00,,,0.00,VWS V14.01,2013-02-04 23:17:00,
2013-02-04 15:21:00,68.8,54.4,29.91,North,354,2.0,5.0,60,0.00,,,0.00,VWS V14.01,2013-02-04 23:21:00,
2013-02-04 15:24:00,68.8,54.4,29.91,WNW,296,2.0,2.0,60,0.00,,,0.00,VWS V14.01,2013-02-04 23:24:00,
2013-02-04 15:27:00,69.0,54.5,29.91,NNW,345,1.0,2.0,60,0.00,,,0.00,VWS V14.01,2013-02-04 23:27:00,
2013-02-04 15:28:00,69.0,54.5,29.91,North,354,3.0,3.0,60,0.00,,,0.00,VWS V14.01,2013-02-04 23:28:00,
2013-02-04 15:29:00,68.9,54.5,29.91,NW,326,2.0,2.0,60,0.00,,,0.00,VWS V14.01,2013-02-04 23:29:00,
2013-02-04 15:33:00,69.1,54.7,29.91,SSW,205,4.0,4.0,60,0.00,,,0.00,VWS V14.01,2013-02-04 23:33:00,
2013-02-04 15:36:00,69.1,54.2,29.92,NNW,330,2.0,4.0,59,0.00,,,0.00,VWS V14.01,2013-02-04 23:36:00,
2013-02-04 15:38:00,68.8,54.4,29.92,NW,326,5.0,5.0,60,0.00,,,0.00,VWS V14.01,2013-02-04 23:38:00,
2013-02-04 15:39:00,68.5,54.1,29.92,NNW,347,3.0,4.0,60,0.00,,,0.00,VWS V14.01,2013-02-04 23:39:00,
2013-02-04 15:41:00,68.1,54.2,29.92,NNW,333,2.0,4.0,61,0.00,,,0.00,VWS V14.01,2013-02-04 23:41:00,
2013-02-04 15:43:00,67.9,54.0,29.92,NNW,340,5.0,5.0,61,0.00,,,0.00,VWS V14.01,2013-02-04 23:43:00,
2013-02-04 15:44:00,67.8,53.9,29.92,NNW,345,1.0,5.0,61,0.00,,,0.00,VWS V14.01,2013-02-04 23:44:00,
2013-02-04 15:45:00,67.8,54.3,29.92,NNW,332,2.0,4.0,62,0.00,,,0.00,VWS V14.01,2013-02-04 23:45:00,
2013-02-04 15:46:00,67.7,54.2,29.92,North,353,3.0,5.0,62,0.00,,,0.00,VWS V14.01,2013-02-04 23:46:00,
2013-02-04 15:49:00,67.8,54.8,29.92,North,355,1.0,2.0,63,0.00,,,0.00,VWS V14.01,2013-02-04 23:49:00,
2013-02-04 15:52:00,68.0,54.5,29.92,NW,319,3.0,3.0,62,0.00,,,0.00,VWS V14.01,2013-02-04 23:52:00,
2013-02-04 15:54:00,67.8,53.9,29.91,North,349,3.0,6.0,61,0.00,,,0.00,VWS V14.01,2013-02-04 23:54:00,
2013-02-04 15:57:00,67.5,54.0,29.91,North,350,4.0,6.0,62,0.00,,,0.00,VWS V14.01,2013-02-04 23:57:00,
2013-02-04 15:59:00,67.3,54.3,29.92,NW,319,2.0,3.0,63,0.00,,,0.00,VWS V14.01,2013-02-04 23:59:00,
2013-02-04 16:02:00,67.5,54.5,29.92,WNW,290,1.0,2.0,63,0.00,,,0.00,VWS V14.01,2013-02-05 00:02:00,
2013-02-04 16:04:00,67.6,54.6,29.91,WNW,288,2.0,3.0,63,0.00,,,0.00,VWS V14.01,2013-02-05 00:04:00,
2013-02-04 16:05:00,67.6,54.1,29.92,NW,315,1.0,3.0,62,0.00,,,0.00,VWS V14.01,2013-02-05 00:05:00,
2013-02-04 16:07:00,67.6,54.6,29.92,NNW,343,3.0,3.0,63,0.00,,,0.00,VWS V14.01,2013-02-05 00:07:00,
2013-02-04 16:10:00,67.2,53.8,29.91,NW,325,2.0,3.0,62,0.00,,,0.00,VWS V14.01,2013-02-05 00:10:00,
2013-02-04 16:13:00,66.6,53.6,29.91,North,6,3.0,4.0,63,0.00,,,0.00,VWS V14.01,2013-02-05 00:13:00,
2013-02-04 16:18:00,66.4,53.9,29.91,NW,319,1.0,2.0,64,0.00,,,0.00,VWS V14.01,2013-02-05 00:18:00,
2013-02-04 16:19:00,66.4,53.4,29.91,WNW,295,1.0,2.0,63,0.00,,,0.00,VWS V14.01,2013-02-05 00:19:00,
2013-02-04 16:22:00,66.4,53.9,29.91,West,281,1.0,2.0,64,0.00,,,0.00,VWS V14.01,2013-02-05 00:22:00,
2013-02-04 16:23:00,66.5,54.0,29.91,WNW,300,1.0,2.0,64,0.00,,,0.00,VWS V14.01,2013-02-05 00:23:00,
2013-02-04 16:24:00,66.5,54.0,29.91,West,281,1.0,1.0,64,0.00,,,0.00,VWS V14.01,2013-02-05 00:24:00,
2013-02-04 16:26:00,66.6,54.1,29.91,NW,326,3.0,3.0,64,0.00,,,0.00,VWS V14.01,2013-02-05 00:26:00,
2013-02-04 16:28:00,66.2,53.2,29.91,North,357,3.0,4.0,63,0.00,,,0.00,VWS V14.01,2013-02-05 00:28:00,
2013-02-04 16:31:00,65.8,53.7,29.91,West,264,2.0,2.0,65,0.00,,,0.00,VWS V14.01,2013-02-05 00:31:00,
2013-02-04 16:34:00,65.6,53.5,29.91,West,259,1.0,2.0,65,0.00,,,0.00,VWS V14.01,2013-02-05 00:34:00,
2013-02-04 16:37:00,65.3,53.2,29.91,NNW,330,1.0,1.0,65,0.00,,,0.00,VWS V14.01,2013-02-05 00:37:00,
2013-02-04 16:38:00,65.2,53.2,29.91,NW,307,1.0,3.0,65,0.00,,,0.00,VWS V14.01,2013-02-05 00:38:00,
2013-02-04 16:39:00,65.1,53.1,29.91,WNW,284,2.0,2.0,65,0.00,,,0.00,VWS V14.01,2013-02-05 00:39:00,
2013-02-04 16:41:00,65.0,53.4,29.91,WNW,283,1.0,1.0,66,0.00,,,0.00,VWS V14.01,2013-02-05 00:41:00,
2013-02-04 16:43:00,64.9,53.3,29.91,West,276,1.0,2.0,66,0.00,,,0.00,VWS V14.01,2013-02-05 00:43:00,
2013-02-04 16:45:00,64.8,53.2,29.91,WSW,258,0.0,1.0,66,0.00,,,0.00,VWS V14.01,2013-02-05 00:45:00,
2013-02-04 16:46:00,64.8,53.2,29.91,WSW,256,1.0,1.0,66,0.00,,,0.00,VWS V14.01,2013-02-05 00:46:00,
2013-02-04 16:49:00,64.6,53.0,29.91,West,281,0.0,0.0,66,0.00,,,0.00,VWS V14.01,2013-02-05 00:49:00,
2013-02-04 16:52:00,64.3,52.3,29.91,WSW,256,1.0,1.0,65,0.00,,,0.00,VWS V14.01,2013-02-05 00:52:00,
2013-02-04 16:54:00,64.1,52.1,29.91,NW,319,0.0,1.0,65,0.00,,,0.00,VWS V14.01,2013-02-05 00:54:00,
2013-02-04 16:56:00,63.9,52.3,29.91,NW,323,0.0,1.0,66,0.00,,,0.00,VWS V14.01,2013-02-05 00:56:00,
2013-02-04 16:57:00,63.8,52.2,29.91,North,350,2.0,2.0,66,0.00,,,0.00,VWS V14.01,2013-02-05 00:57:00,
2013-02-04 17:02:00,63.4,52.3,29.91,NNW,336,0.0,2.0,67,0.00,,,0.00,VWS V14.01,2013-02-05 01:02:00,
2013-02-04 17:03:00,63.3,52.2,29.91,NNW,335,0.0,1.0,67,0.00,,,0.00,VWS V14.01,2013-02-05 01:03:00,
2013-02-04 17:07:00,63.1,52.4,29.91,NNW,335,0.0,0.0,68,0.00,,,0.00,VWS V14.01,2013-02-05 01:07:00,
2013-02-04 17:08:00,63.1,52.4,29.91,NNW,335,0.0,0.0,68,0.00,,,0.00,VWS V14.01,2013-02-05 01:08:00,
2013-02-04 17:10:00,63.0,52.3,29.91,NNW,335,0.0,1.0,68,0.00,,,0.00,VWS V14.01,2013-02-05 01:10:00,
2013-02-04 17:11:00,62.9,52.2,29.91,NNW,335,0.0,0.0,68,0.00,,,0.00,VWS V14.01,2013-02-05 01:11:00,
2013-02-04 17:12:00,62.8,52.1,29.91,NNW,335,0.0,0.0,68,0.00,,,0.00,VWS V14.01,2013-02-05 01:12:00,
2013-02-04 17:17:00,62.6,51.9,29.91,West,281,1.0,1.0,68,0.00,,,0.00,VWS V14.01,2013-02-05 01:17:00,
2013-02-04 17:18:00,62.5,51.8,29.91,West,281,0.0,1.0,68,0.00,,,0.00,VWS V14.01,2013-02-05 01:18:00,
2013-02-04 17:20:00,62.4,52.1,29.91,West,281,0.0,0.0,69,0.00,,,0.00,VWS V14.01,2013-02-05 01:20:00,
2013-02-04 17:22:00,62.3,52.0,29.91,West,281,0.0,0.0,69,0.00,,,0.00,VWS V14.01,2013-02-05 01:22:00,
2013-02-04 17:23:00,62.2,51.9,29.91,West,281,0.0,0.0,69,0.00,,,0.00,VWS V14.01,2013-02-05 01:23:00,
2013-02-04 17:25:00,62.0,51.7,29.91,West,281,0.0,0.0,69,0.00,,,0.00,VWS V14.01,2013-02-05 01:25:00,
2013-02-04 17:27:00,61.9,51.6,29.91,West,263,0.0,0.0,69,0.00,,,0.00,VWS V14.01,2013-02-05 01:27:00,
2013-02-04 17:28:00,61.8,51.5,29.91,West,263,0.0,1.0,69,0.00,,,0.00,VWS V14.01,2013-02-05 01:28:00,
2013-02-04 17:31:00,61.6,51.0,29.91,West,259,0.0,0.0,68,0.00,,,0.00,VWS V14.01,2013-02-05 01:31:00,
2013-02-04 17:33:00,61.4,51.2,29.91,WSW,257,1.0,1.0,69,0.00,,,0.00,VWS V14.01,2013-02-05 01:33:00,
2013-02-04 17:36:00,61.3,51.1,29.91,WSW,246,1.0,1.0,69,0.00,,,0.00,VWS V14.01,2013-02-05 01:36:00,
2013-02-04 17:37:00,61.2,51.0,29.91,WSW,246,0.0,1.0,69,0.00,,,0.00,VWS V14.01,2013-02-05 01:37:00,
2013-02-04 17:38:00,61.2,51.0,29.91,ESE,115,1.0,1.0,69,0.00,,,0.00,VWS V14.01,2013-02-05 01:38:00,
2013-02-04 17:39:00,61.1,51.6,29.91,East,91,1.0,1.0,71,0.00,,,0.00,VWS V14.01,2013-02-05 01:39:00,
2013-02-04 17:41:00,60.7,51.6,29.92,ESE,102,0.0,1.0,72,0.00,,,0.00,VWS V14.01,2013-02-05 01:41:00,
2013-02-04 17:42:00,60.4,51.7,29.92,SE,128,1.0,1.0,73,0.00,,,0.00,VWS V14.01,2013-02-05 01:42:00,
2013-02-04 17:43:00,60.3,51.6,29.92,ESE,107,1.0,2.0,73,0.00,,,0.00,VWS V14.01,2013-02-05 01:43:00,
2013-02-04 17:47:00,59.4,51.8,29.92,ESE,108,0.0,0.0,76,0.00,,,0.00,VWS V14.01,2013-02-05 01:47:00,
2013-02-04 17:48:00,59.3,52.1,29.92,ESE,108,1.0,1.0,77,0.00,,,0.00,VWS V14.01,2013-02-05 01:48:00,
2013-02-04 17:53:00,58.7,51.9,29.92,ESE,103,1.0,2.0,78,0.00,,,0.00,VWS V14.01,2013-02-05 01:53:00,
2013-02-04 17:54:00,58.6,51.8,29.92,East,100,1.0,1.0,78,0.00,,,0.00,VWS V14.01,2013-02-05 01:54:00,
2013-02-04 17:55:00,58.5,51.7,29.92,East,100,1.0,1.0,78,0.00,,,0.00,VWS V14.01,2013-02-05 01:55:00,
2013-02-04 17:56:00,58.4,51.9,29.92,East,98,2.0,2.0,79,0.00,,,0.00,VWS V14.01,2013-02-05 01:56:00,
2013-02-04 18:01:00,57.9,51.8,29.92,East,95,1.0,1.0,80,0.00,,,0.00,VWS V14.01,2013-02-05 02:01:00,
2013-02-04 18:02:00,57.8,51.7,29.92,East,98,0.0,1.0,80,0.00,,,0.00,VWS V14.01,2013-02-05 02:02:00,
2013-02-04 18:04:00,57.6,51.8,29.92,ESE,107,1.0,2.0,81,0.00,,,0.00,VWS V14.01,2013-02-05 02:04:00,
2013-02-04 18:07:00,57.4,51.6,29.92,East,98,2.0,2.0,81,0.00,,,0.00,VWS V14.01,2013-02-05 02:07:00,
2013-02-04 18:08:00,57.4,51.6,29.92,SE,130,1.0,1.0,81,0.00,,,0.00,VWS V14.01,2013-02-05 02:08:00,
2013-02-04 18:09:00,57.3,51.5,29.93,ESE,103,1.0,2.0,81,0.00,,,0.00,VWS V14.01,2013-02-05 02:09:00,
2013-02-04 18:12:00,57.1,51.7,29.93,ESE,113,3.0,3.0,82,0.00,,,0.00,VWS V14.01,2013-02-05 02:12:00,
2013-02-04 18:14:00,56.8,51.4,29.93,SE,127,2.0,4.0,82,0.00,,,0.00,VWS V14.01,2013-02-05 02:14:00,
2013-02-04 18:17:00,56.3,51.2,29.93,SE,129,3.0,4.0,83,0.00,,,0.00,VWS V14.01,2013-02-05 02:17:00,
2013-02-04 18:19:00,56.1,51.0,29.93,SE,140,5.0,5.0,83,0.00,,,0.00,VWS V14.01,2013-02-05 02:19:00,
2013-02-04 18:20:00,56.0,50.9,29.93,ESE,111,1.0,5.0,83,0.00,,,0.00,VWS V14.01,2013-02-05 02:20:00,
2013-02-04 18:22:00,55.6,50.8,29.93,South,188,0.0,3.0,84,0.00,,,0.00,VWS V14.01,2013-02-05 02:22:00,
2013-02-04 18:24:00,55.3,50.6,29.93,ESE,111,5.0,5.0,84,0.00,,,0.00,VWS V14.01,2013-02-05 02:24:00,
2013-02-04 18:25:00,55.2,50.5,29.93,SE,143,3.0,5.0,84,0.00,,,0.00,VWS V14.01,2013-02-05 02:25:00,
2013-02-04 18:29:00,54.5,50.1,29.94,SSW,204,2.0,5.0,85,0.00,,,0.00,VWS V14.01,2013-02-05 02:29:00,
2013-02-04 18:30:00,54.3,50.2,29.94,SSW,207,2.0,4.0,86,0.00,,,0.00,VWS V14.01,2013-02-05 02:30:00,
2013-02-04 18:34:00,53.8,50.0,29.94,ESE,122,3.0,5.0,87,0.00,,,0.00,VWS V14.01,2013-02-05 02:34:00,
2013-02-04 18:35:00,53.7,49.9,29.94,SE,141,3.0,5.0,87,0.00,,,0.00,VWS V14.01,2013-02-05 02:35:00,
2013-02-04 18:38:00,53.3,49.8,29.94,ESE,117,4.0,4.0,88,0.00,,,0.00,VWS V14.01,2013-02-05 02:38:00,
2013-02-04 18:40:00,53.1,50.0,29.94,ESE,104,1.0,3.0,89,0.00,,,0.00,VWS V14.01,2013-02-05 02:40:00,
2013-02-04 18:41:00,53.0,49.8,29.94,SE,142,3.0,3.0,89,0.00,,,0.00,VWS V14.01,2013-02-05 02:41:00,
2013-02-04 18:46:00,52.8,50.0,29.94,SE,128,4.0,5.0,90,0.00,,,0.00,VWS V14.01,2013-02-05 02:46:00,
2013-02-04 18:47:00,52.7,49.8,29.95,SE,128,3.0,5.0,90,0.00,,,0.00,VWS V14.01,2013-02-05 02:47:00,
2013-02-04 18:49:00,52.5,49.7,29.95,SSE,165,3.0,4.0,90,0.00,,,0.00,VWS V14.01,2013-02-05 02:49:00,
2013-02-04 18:51:00,52.4,49.6,29.95,SE,134,5.0,7.0,90,0.00,,,0.00,VWS V14.01,2013-02-05 02:51:00,
2013-02-04 18:52:00,52.3,49.5,29.95,East,93,5.0,6.0,90,0.00,,,0.00,VWS V14.01,2013-02-05 02:52:00,
2013-02-04 18:53:00,52.3,49.8,29.95,SE,145,6.0,8.0,91,0.00,,,0.00,VWS V14.01,2013-02-05 02:53:00,
2013-02-04 18:55:00,52.2,49.7,29.95,ESE,121,2.0,2.0,91,0.00,,,0.00,VWS V14.01,2013-02-05 02:55:00,
2013-02-04 18:57:00,52.2,49.7,29.95,SE,145,1.0,2.0,91,0.00,,,0.00,VWS V14.01,2013-02-05 02:57:00,
2013-02-04 18:59:00,52.2,50.0,29.95,SSE,158,1.0,3.0,92,0.00,,,0.00,VWS V14.01,2013-02-05 02:59:00,
2013-02-04 19:00:00,52.2,50.0,29.95,SE,132,2.0,3.0,92,0.00,,,0.00,VWS V14.01,2013-02-05 03:00:00,
2013-02-04 19:02:00,52.3,50.0,29.95,ESE,113,3.0,4.0,92,0.00,,,0.00,VWS V14.01,2013-02-05 03:02:00,
2013-02-04 19:04:00,52.3,50.0,29.95,East,86,3.0,4.0,92,0.00,,,0.00,VWS V14.01,2013-02-05 03:04:00,
2013-02-04 19:07:00,52.2,50.0,29.95,SE,137,2.0,3.0,92,0.00,,,0.00,VWS V14.01,2013-02-05 03:07:00,
2013-02-04 19:08:00,52.2,50.0,29.95,SE,125,3.0,3.0,92,0.00,,,0.00,VWS V14.01,2013-02-05 03:08:00,
2013-02-04 19:12:00,52.2,50.2,29.96,East,100,2.0,2.0,93,0.00,,,0.00,VWS V14.01,2013-02-05 03:12:00,
2013-02-04 19:14:00,52.2,50.2,29.96,SSE,159,1.0,2.0,93,0.00,,,0.00,VWS V14.01,2013-02-05 03:14:00,
2013-02-04 19:17:00,52.1,50.1,29.96,ESE,122,1.0,2.0,93,0.00,,,0.00,VWS V14.01,2013-02-05 03:17:00,
2013-02-04 19:19:00,52.1,50.1,29.96,SSW,210,3.0,4.0,93,0.00,,,0.00,VWS V14.01,2013-02-05 03:19:00,
2013-02-04 19:20:00,52.1,50.1,29.96,SSW,207,5.0,5.0,93,0.00,,,0.00,VWS V14.01,2013-02-05 03:20:00,
2013-02-04 19:21:00,52.0,49.8,29.97,SW,215,3.0,5.0,92,0.00,,,0.00,VWS V14.01,2013-02-05 03:21:00,
2013-02-04 19:24:00,51.8,49.8,29.97,SW,217,2.0,2.0,93,0.00,,,0.00,VWS V14.01,2013-02-05 03:24:00,
2013-02-04 19:27:00,51.7,49.8,29.97,WSW,246,1.0,3.0,93,0.00,,,0.00,VWS V14.01,2013-02-05 03:27:00,
2013-02-04 19:28:00,51.8,49.8,29.97,SE,136,1.0,2.0,93,0.00,,,0.00,VWS V14.01,2013-02-05 03:28:00,
2013-02-04 19:32:00,51.7,49.8,29.97,ESE,115,4.0,5.0,93,0.00,,,0.00,VWS V14.01,2013-02-05 03:32:00,
2013-02-04 19:33:00,51.6,49.7,29.97,SE,141,4.0,5.0,93,0.00,,,0.00,VWS V14.01,2013-02-05 03:33:00,
2013-02-04 19:37:00,51.6,49.7,29.97,SE,127,1.0,4.0,93,0.00,,,0.00,VWS V14.01,2013-02-05 03:37:00,
2013-02-04 19:38:00,51.6,49.7,29.97,ESE,120,3.0,3.0,93,0.00,,,0.00,VWS V14.01,2013-02-05 03:38:00,
2013-02-04 19:40:00,51.6,49.9,29.97,SE,139,0.0,1.0,94,0.00,,,0.00,VWS V14.01,2013-02-05 03:40:00,
2013-02-04 19:41:00,51.6,49.9,29.98,East,94,2.0,2.0,94,0.00,,,0.00,VWS V14.01,2013-02-05 03:41:00,
2013-02-04 19:43:00,51.6,49.9,29.98,SSE,155,0.0,0.0,94,0.00,,,0.00,VWS V14.01,2013-02-05 03:43:00,
2013-02-04 19:45:00,51.7,50.0,29.98,SE,129,1.0,2.0,94,0.00,,,0.00,VWS V14.01,2013-02-05 03:45:00,
2013-02-04 19:46:00,51.7,50.0,29.98,SW,215,3.0,3.0,94,0.00,,,0.00,VWS V14.01,2013-02-05 03:46:00,
2013-02-04 19:47:00,51.7,50.0,29.98,SSE,160,1.0,4.0,94,0.00,,,0.00,VWS V14.01,2013-02-05 03:47:00,
2013-02-04 19:48:00,51.6,49.9,29.98,West,260,1.0,3.0,94,0.00,,,0.00,VWS V14.01,2013-02-05 03:48:00,
2013-02-04 19:52:00,51.6,49.9,29.98,SSW,198,3.0,5.0,94,0.00,,,0.00,VWS V14.01,2013-02-05 03:52:00,
2013-02-04 19:53:00,51.6,49.9,29.98,SSW,210,3.0,4.0,94,0.00,,,0.00,VWS V14.01,2013-02-05 03:53:00,
2013-02-04 19:58:00,51.4,49.7,29.98,SSW,195,2.0,2.0,94,0.00,,,0.00,VWS V14.01,2013-02-05 03:58:00,
2013-02-04 19:59:00,51.4,49.7,29.99,SSW,211,1.0,1.0,94,0.00,,,0.00,VWS V14.01,2013-02-05 03:59:00,
2013-02-04 20:00:00,51.4,49.7,29.99,SSW,204,1.0,1.0,94,0.00,,,0.00,VWS V14.01,2013-02-05 04:00:00,
2013-02-04 20:03:00,51.4,49.7,29.99,SW,217,0.0,1.0,94,0.00,,,0.00,VWS V14.01,2013-02-05 04:03:00,
2013-02-04 20:05:00,51.5,49.8,29.99,SW,220,0.0,0.0,94,0.00,,,0.00,VWS V14.01,2013-02-05 04:05:00,
2013-02-04 20:07:00,51.5,49.8,29.99,SW,219,0.0,0.0,94,0.00,,,0.00,VWS V14.01,2013-02-05 04:07:00,
2013-02-04 20:08:00,51.5,49.8,29.99,SW,219,0.0,0.0,94,0.00,,,0.00,VWS V14.01,2013-02-05 04:08:00,
2013-02-04 20:09:00,51.5,49.8,29.99,West,270,1.0,2.0,94,0.00,,,0.00,VWS V14.01,2013-02-05 04:09:00,
2013-02-04 20:11:00,51.5,49.8,29.99,WSW,242,0.0,2.0,94,0.00,,,0.00,VWS V14.01,2013-02-05 04:11:00,
2013-02-04 20:14:00,51.6,49.9,30.00,West,270,1.0,1.0,94,0.00,,,0.00,VWS V14.01,2013-02-05 04:14:00,
2013-02-04 20:17:00,51.6,49.9,30.00,West,267,0.0,0.0,94,0.00,,,0.00,VWS V14.01,2013-02-05 04:17:00,
2013-02-04 20:19:00,51.6,49.9,30.00,WSW,245,2.0,2.0,94,0.00,,,0.00,VWS V14.01,2013-02-05 04:19:00,
2013-02-04 20:20:00,51.6,49.9,30.00,WSW,239,1.0,1.0,94,0.00,,,0.00,VWS V14.01,2013-02-05 04:20:00,
2013-02-04 20:24:00,51.5,49.8,30.00,West,264,1.0,1.0,94,0.00,,,0.00,VWS V14.01,2013-02-05 04:24:00,
2013-02-04 20:25:00,51.5,49.8,30.00,West,274,1.0,2.0,94,0.00,,,0.00,VWS V14.01,2013-02-05 04:25:00,
2013-02-04 20:28:00,51.5,49.8,30.00,West,259,1.0,1.0,94,0.00,,,0.00,VWS V14.01,2013-02-05 04:28:00,
2013-02-04 20:30:00,51.4,49.7,30.00,WSW,258,2.0,2.0,94,0.00,,,0.00,VWS V14.01,2013-02-05 04:30:00,
2013-02-04 20:31:00,51.4,49.7,30.00,West,260,1.0,3.0,94,0.00,,,0.00,VWS V14.01,2013-02-05 04:31:00,
2013-02-04 20:32:00,51.4,49.7,30.00,West,260,2.0,2.0,94,0.00,,,0.00,VWS V14.01,2013-02-05 04:32:00,
2013-02-04 20:36:00,51.4,49.7,30.00,WSW,238,0.0,0.0,94,0.00,,,0.00,VWS V14.01,2013-02-05 04:36:00,
2013-02-04 20:41:00,51.4,50.0,30.01,WSW,240,1.0,1.0,95,0.00,,,0.00,VWS V14.01,2013-02-05 04:41:00,
2013-02-04 20:42:00,51.5,50.1,30.01,West,266,1.0,1.0,95,0.00,,,0.00,VWS V14.01,2013-02-05 04:42:00,
2013-02-04 20:43:00,51.5,50.1,30.01,West,263,0.0,1.0,95,0.00,,,0.00,VWS V14.01,2013-02-05 04:43:00,
2013-02-04 20:46:00,51.6,50.2,30.01,SW,233,0.0,0.0,95,0.00,,,0.00,VWS V14.01,2013-02-05 04:46:00,
2013-02-04 20:47:00,51.6,50.2,30.01,SW,233,0.0,0.0,95,0.00,,,0.00,VWS V14.01,2013-02-05 04:47:00,
2013-02-04 20:49:00,51.7,50.3,30.01,SSW,193,0.0,1.0,95,0.00,,,0.00,VWS V14.01,2013-02-05 04:49:00,
2013-02-04 20:51:00,51.7,50.3,30.01,SSW,193,0.0,0.0,95,0.00,,,0.00,VWS V14.01,2013-02-05 04:51:00,
2013-02-04 20:52:00,51.6,50.2,30.01,SSW,193,0.0,0.0,95,0.00,,,0.00,VWS V14.01,2013-02-05 04:52:00,
2013-02-04 20:53:00,51.6,50.2,30.01,SSW,194,0.0,0.0,95,0.00,,,0.00,VWS V14.01,2013-02-05 04:53:00,
2013-02-04 20:54:00,51.7,50.3,30.01,SSW,194,0.0,0.0,95,0.00,,,0.00,VWS V14.01,2013-02-05 04:54:00,
2013-02-04 20:56:00,51.7,50.3,30.01,SSW,194,0.0,0.0,95,0.00,,,0.00,VWS V14.01,2013-02-05 04:56:00,
2013-02-04 21:00:00,51.7,50.3,30.01,SSW,194,0.0,0.0,95,0.00,,,0.00,VWS V14.01,2013-02-05 05:00:00,
2013-02-04 21:01:00,51.7,50.3,30.01,SSW,194,0.0,0.0,95,0.00,,,0.00,VWS V14.01,2013-02-05 05:01:00,
2013-02-04 21:02:00,51.7,50.3,30.01,SSW,194,0.0,0.0,95,0.00,,,0.00,VWS V14.01,2013-02-05 05:02:00,
2013-02-04 21:05:00,51.7,50.3,30.01,WSW,243,1.0,1.0,95,0.00,,,0.00,VWS V14.01,2013-02-05 05:05:00,
2013-02-04 21:06:00,51.7,50.3,30.01,WSW,255,0.0,1.0,95,0.00,,,0.00,VWS V14.01,2013-02-05 05:06:00,
2013-02-04 21:07:00,51.8,50.4,30.01,WSW,254,0.0,0.0,95,0.00,,,0.00,VWS V14.01,2013-02-05 05:07:00,
2013-02-04 21:08:00,51.8,50.4,30.01,WSW,255,0.0,0.0,95,0.00,,,0.00,VWS V14.01,2013-02-05 05:08:00,
2013-02-04 21:11:00,51.8,50.4,30.01,WSW,253,0.0,0.0,95,0.00,,,0.00,VWS V14.01,2013-02-05 05:11:00,
2013-02-04 21:14:00,51.8,50.4,30.01,WSW,240,1.0,2.0,95,0.00,,,0.00,VWS V14.01,2013-02-05 05:14:00,
2013-02-04 21:15:00,51.8,50.4,30.01,SW,232,1.0,2.0,95,0.00,,,0.00,VWS V14.01,2013-02-05 05:15:00,
2013-02-04 21:16:00,51.8,50.4,30.01,SW,220,1.0,2.0,95,0.00,,,0.00,VWS V14.01,2013-02-05 05:16:00,
2013-02-04 21:17:00,51.7,50.3,30.01,West,267,1.0,1.0,95,0.00,,,0.00,VWS V14.01,2013-02-05 05:17:00,
2013-02-04 21:19:00,51.7,50.3,30.01,West,267,0.0,1.0,95,0.00,,,0.00,VWS V14.01,2013-02-05 05:19:00,
2013-02-04 21:22:00,51.8,50.4,30.01,West,266,0.0,0.0,95,0.00,,,0.00,VWS V14.01,2013-02-05 05:22:00,
2013-02-04 21:23:00,51.7,50.3,30.01,West,267,0.0,0.0,95,0.00,,,0.00,VWS V14.01,2013-02-05 05:23:00,
2013-02-04 21:25:00,51.8,50.4,30.01,West,267,0.0,0.0,95,0.00,,,0.00,VWS V14.01,2013-02-05 05:25:00,
2013-02-04 21:28:00,51.8,50.4,30.01,West,266,0.0,2.0,95,0.00,,,0.00,VWS V14.01,2013-02-05 05:28:00,
2013-02-04 21:30:00,51.8,50.4,30.01,West,263,1.0,1.0,95,0.00,,,0.00,VWS V14.01,2013-02-05 05:30:00,
2013-02-04 21:32:00,51.8,50.4,30.02,West,271,1.0,1.0,95,0.00,,,0.00,VWS V14.01,2013-02-05 05:32:00,
2013-02-04 21:33:00,51.8,50.4,30.02,WSW,256,0.0,1.0,95,0.00,,,0.00,VWS V14.01,2013-02-05 05:33:00,
2013-02-04 21:35:00,51.8,50.4,30.01,WSW,256,0.0,0.0,95,0.00,,,0.00,VWS V14.01,2013-02-05 05:35:00,
2013-02-04 21:37:00,51.8,50.4,30.01,WSW,256,0.0,0.0,95,0.00,,,0.00,VWS V14.01,2013-02-05 05:37:00,
2013-02-04 21:39:00,51.8,50.4,30.01,WSW,257,1.0,1.0,95,0.00,,,0.00,VWS V14.01,2013-02-05 05:39:00,
2013-02-04 21:40:00,51.8,50.4,30.01,West,269,1.0,2.0,95,0.00,,,0.00,VWS V14.01,2013-02-05 05:40:00,
2013-02-04 21:41:00,51.8,50.4,30.01,West,272,1.0,2.0,95,0.00,,,0.00,VWS V14.01,2013-02-05 05:41:00,
2013-02-04 21:42:00,51.8,50.4,30.01,West,272,1.0,1.0,95,0.00,,,0.00,VWS V14.01,2013-02-05 05:42:00,
2013-02-04 21:45:00,51.8,50.4,30.01,West,260,0.0,1.0,95,0.00,,,0.00,VWS V14.01,2013-02-05 05:45:00,
2013-02-04 21:48:00,51.8,50.4,30.01,West,260,0.0,0.0,95,0.00,,,0.00,VWS V14.01,2013-02-05 05:48:00,
2013-02-04 21:50:00,51.8,50.4,30.01,West,260,0.0,0.0,95,0.00,,,0.00,VWS V14.01,2013-02-05 05:50:00,
2013-02-04 21:51:00,51.8,50.4,30.01,West,260,0.0,0.0,95,0.00,,,0.00,VWS V14.01,2013-02-05 05:51:00,
2013-02-04 21:55:00,51.8,50.4,30.01,West,260,0.0,0.0,95,0.00,,,0.00,VWS V14.01,2013-02-05 05:55:00,
2013-02-04 21:57:00,51.8,50.4,30.01,West,260,0.0,0.0,95,0.00,,,0.00,VWS V14.01,2013-02-05 05:57:00,
2013-02-04 22:00:00,51.9,50.5,30.01,West,260,0.0,0.0,95,0.00,,,0.00,VWS V14.01,2013-02-05 06:00:00,
2013-02-04 22:01:00,51.9,50.5,30.01,West,260,0.0,0.0,95,0.00,,,0.00,VWS V14.01,2013-02-05 06:01:00,
2013-02-04 22:02:00,52.0,50.6,30.01,West,260,0.0,0.0,95,0.00,,,0.00,VWS V14.01,2013-02-05 06:02:00,
2013-02-04 22:03:00,52.0,50.6,30.01,West,260,0.0,0.0,95,0.00,,,0.00,VWS V14.01,2013-02-05 06:03:00,
2013-02-04 22:05:00,52.0,50.6,30.01,ESE,112,0.0,2.0,95,0.00,,,0.00,VWS V14.01,2013-02-05 06:05:00,
2013-02-04 22:06:00,52.0,50.6,30.01,ESE,111,0.0,1.0,95,0.00,,,0.00,VWS V14.01,2013-02-05 06:06:00,
2013-02-04 22:08:00,52.0,50.6,30.01,ESE,111,0.0,0.0,95,0.00,,,0.00,VWS V14.01,2013-02-05 06:08:00,
2013-02-04 22:10:00,52.0,50.6,30.01,East,96,1.0,1.0,95,0.00,,,0.00,VWS V14.01,2013-02-05 06:10:00,
2013-02-04 22:11:00,51.9,50.5,30.01,East,96,0.0,1.0,95,0.00,,,0.00,VWS V14.01,2013-02-05 06:11:00,
2013-02-04 22:13:00,51.9,50.5,30.01,East,96,0.0,1.0,95,0.00,,,0.00,VWS V14.01,2013-02-05 06:13:00,
2013-02-04 22:15:00,51.9,50.5,30.01,East,96,0.0,0.0,95,0.00,,,0.00,VWS V14.01,2013-02-05 06:15:00,
2013-02-04 22:16:00,51.9,50.5,30.01,East,96,0.0,0.0,95,0.00,,,0.00,VWS V14.01,2013-02-05 06:16:00,
2013-02-04 22:18:00,52.0,50.6,30.01,SE,125,0.0,0.0,95,0.00,,,0.00,VWS V14.01,2013-02-05 06:18:00,
2013-02-04 22:21:00,52.0,50.6,30.01,SSE,162,2.0,2.0,95,0.00,,,0.00,VWS V14.01,2013-02-05 06:21:00,
2013-02-04 22:22:00,52.0,50.6,30.01,SSW,193,1.0,2.0,95,0.00,,,0.00,VWS V14.01,2013-02-05 06:22:00,
2013-02-04 22:23:00,51.9,50.5,30.01,South,177,1.0,2.0,95,0.00,,,0.00,VWS V14.01,2013-02-05 06:23:00,
2013-02-04 22:27:00,51.8,50.4,30.01,SE,141,1.0,1.0,95,0.00,,,0.00,VWS V14.01,2013-02-05 06:27:00,
2013-02-04 22:28:00,51.8,50.4,30.01,SE,144,0.0,1.0,95,0.00,,,0.00,VWS V14.01,2013-02-05 06:28:00,
2013-02-04 22:29:00,51.8,50.4,30.01,SE,143,0.0,0.0,95,0.00,,,0.00,VWS V14.01,2013-02-05 06:29:00,
2013-02-04 22:32:00,51.8,50.4,30.01,SE,142,0.0,0.0,95,0.00,,,0.00,VWS V14.01,2013-02-05 06:32:00,
2013-02-04 22:33:00,51.8,50.4,30.01,SE,142,0.0,1.0,95,0.00,,,0.00,VWS V14.01,2013-02-05 06:33:00,
2013-02-04 22:34:00,51.8,50.4,30.01,SE,142,0.0,0.0,95,0.00,,,0.00,VWS V14.01,2013-02-05 06:34:00,
2013-02-04 22:35:00,51.8,50.4,30.01,SE,143,0.0,0.0,95,0.00,,,0.00,VWS V14.01,2013-02-05 06:35:00,
2013-02-04 22:37:00,51.8,50.4,30.01,SE,139,0.0,1.0,95,0.00,,,0.00,VWS V14.01,2013-02-05 06:37:00,
2013-02-04 22:39:00,51.9,50.8,30.01,SE,139,0.0,0.0,96,0.00,,,0.00,VWS V14.01,2013-02-05 06:39:00,
2013-02-04 22:40:00,51.9,50.8,30.01,ESE,105,3.0,3.0,96,0.00,,,0.00,VWS V14.01,2013-02-05 06:40:00,
2013-02-04 22:41:00,51.9,50.5,30.01,East,89,0.0,3.0,95,0.00,,,0.00,VWS V14.01,2013-02-05 06:41:00,
2013-02-04 22:44:00,51.8,50.4,30.01,East,86,0.0,0.0,95,0.00,,,0.00,VWS V14.01,2013-02-05 06:44:00,
2013-02-04 22:45:00,51.8,50.4,30.01,East,86,0.0,0.0,95,0.00,,,0.00,VWS V14.01,2013-02-05 06:45:00,
2013-02-04 22:46:00,51.8,50.4,30.01,East,86,0.0,0.0,95,0.00,,,0.00,VWS V14.01,2013-02-05 06:46:00,
2013-02-04 22:48:00,51.9,50.8,30.01,SE,127,0.0,2.0,96,0.00,,,0.00,VWS V14.01,2013-02-05 06:48:00,
2013-02-04 22:49:00,51.9,50.8,30.01,East,93,0.0,2.0,96,0.00,,,0.00,VWS V14.01,2013-02-05 06:49:00,
2013-02-04 22:52:00,51.9,50.8,30.01,ESE,115,1.0,1.0,96,0.00,,,0.00,VWS V14.01,2013-02-05 06:52:00,
2013-02-04 22:54:00,51.9,50.8,30.01,ESE,114,1.0,2.0,96,0.00,,,0.00,VWS V14.01,2013-02-05 06:54:00,
2013-02-04 22:56:00,51.9,50.8,30.01,SE,129,1.0,1.0,96,0.00,,,0.00,VWS V14.01,2013-02-05 06:56:00,
2013-02-04 22:58:00,51.8,50.4,30.01,East,100,0.0,1.0,95,0.00,,,0.00,VWS V14.01,2013-02-05 06:58:00,
2013-02-04 22:59:00,51.8,50.4,30.01,East,100,0.0,0.0,95,0.00,,,0.00,VWS V14.01,2013-02-05 06:59:00,
2013-02-04 23:00:00,51.8,50.4,30.01,ESE,120,0.0,0.0,95,0.00,,,0.00,VWS V14.01,2013-02-05 07:00:00,
2013-02-04 23:03:00,51.8,50.7,30.01,South,172,1.0,1.0,96,0.00,,,0.00,VWS V14.01,2013-02-05 07:03:00,
2013-02-04 23:04:00,51.8,50.7,30.01,SSW,201,1.0,1.0,96,0.00,,,0.00,VWS V14.01,2013-02-05 07:04:00,
2013-02-04 23:05:00,51.8,50.7,30.01,SE,145,1.0,2.0,96,0.00,,,0.00,VWS V14.01,2013-02-05 07:05:00,
2013-02-04 23:06:00,51.8,50.7,30.01,East,89,3.0,3.0,96,0.00,,,0.00,VWS V14.01,2013-02-05 07:06:00,
2013-02-04 23:08:00,51.8,50.7,30.01,SE,134,0.0,0.0,96,0.00,,,0.00,VWS V14.01,2013-02-05 07:08:00,
2013-02-04 23:11:00,51.8,50.7,30.01,ENE,63,3.0,3.0,96,0.00,,,0.00,VWS V14.01,2013-02-05 07:11:00,
2013-02-04 23:14:00,51.8,50.4,30.01,SE,143,2.0,3.0,95,0.00,,,0.00,VWS V14.01,2013-02-05 07:14:00,
2013-02-04 23:16:00,51.8,50.7,30.01,ESE,113,2.0,3.0,96,0.00,,,0.00,VWS V14.01,2013-02-05 07:16:00,
2013-02-04 23:17:00,51.8,50.7,30.01,ESE,110,1.0,4.0,96,0.00,,,0.00,VWS V14.01,2013-02-05 07:17:00,
2013-02-04 23:19:00,51.8,50.7,30.01,East,89,4.0,4.0,96,0.00,,,0.00,VWS V14.01,2013-02-05 07:19:00,
2013-02-04 23:21:00,51.6,50.2,30.00,East,93,3.0,3.0,95,0.00,,,0.00,VWS V14.01,2013-02-05 07:21:00,
2013-02-04 23:24:00,51.6,50.2,30.00,SE,133,2.0,4.0,95,0.00,,,0.00,VWS V14.01,2013-02-05 07:24:00,
2013-02-04 23:26:00,51.6,50.5,30.00,East,93,4.0,4.0,96,0.00,,,0.00,VWS V14.01,2013-02-05 07:26:00,
2013-02-04 23:28:00,51.5,50.1,30.00,East,85,3.0,3.0,95,0.00,,,0.00,VWS V14.01,2013-02-05 07:28:00,
2013-02-04 23:30:00,51.4,50.0,30.01,East,81,2.0,6.0,95,0.00,,,0.00,VWS V14.01,2013-02-05 07:30:00,
2013-02-04 23:31:00,51.3,49.9,30.01,ESE,116,1.0,2.0,95,0.00,,,0.00,VWS V14.01,2013-02-05 07:31:00,
2013-02-04 23:33:00,51.2,49.8,30.01,East,79,2.0,3.0,95,0.00,,,0.00,VWS V14.01,2013-02-05 07:33:00,
2013-02-04 23:35:00,51.2,49.8,30.00,East,86,5.0,6.0,95,0.00,,,0.00,VWS V14.01,2013-02-05 07:35:00,
2013-02-04 23:36:00,51.1,49.7,30.00,East,94,3.0,3.0,95,0.00,,,0.00,VWS V14.01,2013-02-05 07:36:00,
2013-02-04 23:37:00,51.0,49.6,30.00,East,88,2.0,4.0,95,0.00,,,0.00,VWS V14.01,2013-02-05 07:37:00,
2013-02-04 23:38:00,51.0,49.6,30.00,ENE,61,1.0,1.0,95,0.00,,,0.00,VWS V14.01,2013-02-05 07:38:00,
2013-02-04 23:41:00,51.0,49.9,30.01,NNE,33,3.0,3.0,96,0.00,,,0.00,VWS V14.01,2013-02-05 07:41:00,
2013-02-04 23:44:00,50.8,49.4,30.01,NE,41,1.0,2.0,95,0.00,,,0.00,VWS V14.01,2013-02-05 07:44:00,
2013-02-04 23:45:00,50.8,49.4,30.01,SE,127,1.0,2.0,95,0.00,,,0.00,VWS V14.01,2013-02-05 07:45:00,
2013-02-04 23:46:00,50.8,49.4,30.01,ESE,117,1.0,1.0,95,0.00,,,0.00,VWS V14.01,2013-02-05 07:46:00,
2013-02-04 23:50:00,50.6,49.2,30.01,ESE,122,0.0,0.0,95,0.00,,,0.00,VWS V14.01,2013-02-05 07:50:00,
2013-02-04 23:51:00,50.6,49.2,30.00,ESE,122,0.0,0.0,95,0.00,,,0.00,VWS V14.01,2013-02-05 07:51:00,
2013-02-04 23:52:00,50.6,49.2,30.01,ENE,66,1.0,1.0,95,0.00,,,0.00,VWS V14.01,2013-02-05 07:52:00,
2013-02-04 23:55:00,50.6,49.5,30.00,East,83,2.0,3.0,96,0.00,,,0.00,VWS V14.01,2013-02-05 07:55:00,
2013-02-04 23:57:00,50.4,49.0,30.00,East,100,1.0,4.0,95,0.00,,,0.00,VWS V14.01,2013-02-05 07:57:00,
2013-02-04 23:58:00,50.4,49.0,30.00,East,79,1.0,2.0,95,0.00,,,0.00,VWS V14.01,2013-02-05 07:58:00,